Private Wetterstation Schwalmtal/Rainrod
Wetterdaten: aktuell Donnerstag, 16.05.2024 22:05
Datum Zeit Temp. A. Feuchte A. Regen Wind Richtung Richtung Sonnenschein Zeit Regen ET UV Solar Taupunkt Windchill Windben Empfang
16.05.2024 22:05 13,7 C 90 % 0,0 l/m 4,8 km/h (1 Bft) O-NO 67 0 min 0 min 0,000 mm 0,0 UV-I 0 W/m 12,1 C 13,7 C 14,5 km/h (3 Bft) 100,00 %
16.05.2024 22:02 13,7 C 90 % 0,0 l/m 6,1 km/h (2 Bft) O-NO 57 0 min 0 min 0,000 mm 0,0 UV-I 0 W/m 12,1 C 13,7 C 14,5 km/h (3 Bft) 97,96 %
16.05.2024 22:00 13,7 C 90 % 0,0 l/m 8,7 km/h (2 Bft) O-NO 78 0 min 0 min 0,000 mm 0,0 UV-I 0 W/m 12,1 C 13,7 C 22,5 km/h (4 Bft) 100,00 %
16.05.2024 21:58 13,8 C 90 % 0,0 l/m 9,4 km/h (2 Bft) O 96 0 min 0 min 0,000 mm 0,0 UV-I 0 W/m 12,2 C 13,7 C 19,3 km/h (3 Bft) 97,96 %
16.05.2024 21:56 13,8 C 90 % 0,0 l/m 5,5 km/h (2 Bft) O-NO 65 0 min 0 min 0,000 mm 0,0 UV-I 0 W/m 12,2 C 13,8 C 11,3 km/h (2 Bft) 100,00 %
16.05.2024 21:54 13,8 C 90 % 0,0 l/m 5,7 km/h (2 Bft) O 90 0 min 0 min 0,000 mm 0,0 UV-I 0 W/m 12,2 C 13,8 C 17,7 km/h (3 Bft) 95,83 %
16.05.2024 21:52 13,8 C 90 % 0,0 l/m 6,9 km/h (2 Bft) O-NO 71 0 min 0 min 0,000 mm 0,0 UV-I 0 W/m 12,2 C 13,8 C 16,1 km/h (3 Bft) 98,00 %
16.05.2024 21:50 13,9 C 90 % 0,0 l/m 6,3 km/h (2 Bft) O-NO 68 0 min 0 min 0,000 mm 0,0 UV-I 0 W/m 12,3 C 13,9 C 14,5 km/h (3 Bft) 97,96 %
16.05.2024 21:48 13,9 C 90 % 0,0 l/m 3,2 km/h (1 Bft) NO 54 0 min 0 min 0,000 mm 0,0 UV-I 0 W/m 12,3 C 13,9 C 11,3 km/h (2 Bft) 97,96 %
16.05.2024 21:46 13,9 C 90 % 0,0 l/m 4,9 km/h (1 Bft) O-NO 61 0 min 0 min 0,000 mm 0,0 UV-I 0 W/m 12,3 C 13,9 C 16,1 km/h (3 Bft) 97,96 %
16.05.2024 21:44 14,0 C 89 % 0,0 l/m 2,9 km/h (1 Bft) O 87 0 min 0 min 0,000 mm 0,0 UV-I 0 W/m 12,2 C 14,0 C 16,1 km/h (3 Bft) 97,22 %
16.05.2024 21:42 14,1 C 89 % 0,0 l/m 6,0 km/h (2 Bft) NO 49 0 min 0 min 0,000 mm 0,0 UV-I 0 W/m 12,3 C 14,1 C 14,5 km/h (3 Bft) 97,92 %
16.05.2024 21:40 14,1 C 89 % 0,0 l/m 4,6 km/h (1 Bft) N-NO 26 0 min 0 min 0,000 mm 0,0 UV-I 0 W/m 12,3 C 14,1 C 14,5 km/h (3 Bft) 94,34 %
16.05.2024 21:38 14,1 C 89 % 0,0 l/m 3,6 km/h (1 Bft) N-NO 30 0 min 0 min 0,000 mm 0,0 UV-I 0 W/m 12,3 C 14,1 C 11,3 km/h (2 Bft) 97,96 %
16.05.2024 21:36 14,2 C 89 % 0,0 l/m 5,4 km/h (2 Bft) NO 51 0 min 0 min 0,000 mm 0,0 UV-I 0 W/m 12,4 C 14,2 C 16,1 km/h (3 Bft) 94,44 %
16.05.2024 21:34 14,2 C 89 % 0,0 l/m 3,7 km/h (1 Bft) NO 40 0 min 0 min 0,000 mm 0,0 UV-I 0 W/m 12,4 C 14,2 C 16,1 km/h (3 Bft) 95,92 %
16.05.2024 21:32 14,3 C 89 % 0,0 l/m 3,3 km/h (1 Bft) NO 51 0 min 0 min 0,000 mm 0,0 UV-I 0 W/m 12,5 C 14,3 C 9,7 km/h (2 Bft) 98,08 %
16.05.2024 21:30 14,3 C 88 % 0,0 l/m 4,8 km/h (1 Bft) NO 52 0 min 0 min 0,000 mm 0,0 UV-I 0 W/m 12,3 C 14,3 C 16,1 km/h (3 Bft) 97,96 %
16.05.2024 21:28 14,4 C 88 % 0,0 l/m 2,8 km/h (1 Bft) NO 36 0 min 0 min 0,000 mm 0,0 UV-I 0 W/m 12,4 C 14,4 C 11,3 km/h (2 Bft) 97,44 %
16.05.2024 21:26 14,4 C 88 % 0,0 l/m 1,8 km/h (1 Bft) NO 46 0 min 0 min 0,000 mm 0,0 UV-I 0 W/m 12,4 C 14,4 C 6,4 km/h (2 Bft) 100,00 %
16.05.2024 21:24 14,5 C 88 % 0,0 l/m 4,7 km/h (1 Bft) NO 44 0 min 0 min 0,000 mm 0,0 UV-I 0 W/m 12,5 C 14,5 C 11,3 km/h (2 Bft) 100,00 %
16.05.2024 21:22 14,6 C 88 % 0,0 l/m 1,9 km/h (1 Bft) NO 40 0 min 0 min 0,000 mm 0,0 UV-I 0 W/m 12,6 C 14,6 C 8,0 km/h (2 Bft) 100,00 %
16.05.2024 21:20 14,6 C 88 % 0,0 l/m 3,8 km/h (1 Bft) N-NO 28 0 min 0 min 0,000 mm 0,0 UV-I 0 W/m 12,6 C 14,6 C 12,9 km/h (3 Bft) 100,00 %
16.05.2024 21:18 14,7 C 88 % 0,0 l/m 8,1 km/h (2 Bft) N-NO 24 0 min 0 min 0,000 mm 0,0 UV-I 0 W/m 12,7 C 14,7 C 19,3 km/h (3 Bft) 100,00 %
16.05.2024 21:16 14,8 C 88 % 0,0 l/m 0,5 km/h (0 Bft) N-NO 13 0 min 0 min 0,000 mm 0,0 UV-I 0 W/m 12,8 C 14,8 C 3,2 km/h (1 Bft) 100,00 %
16.05.2024 21:14 14,8 C 87 % 0,0 l/m 1,5 km/h (1 Bft) O-NO 61 0 min 0 min 0,000 mm 0,0 UV-I 0 W/m 12,7 C 14,8 C 6,4 km/h (2 Bft) 100,00 %
16.05.2024 21:13 14,9 C 87 % 0,0 l/m 1,1 km/h (1 Bft) NO 37 0 min 0 min 0,000 mm 0,0 UV-I 0 W/m 12,8 C 14,9 C 8,0 km/h (2 Bft) 100,00 %
16.05.2024 21:10 14,9 C 87 % 0,0 l/m 2,6 km/h (1 Bft) NO 39 0 min 0 min 0,000 mm 0,0 UV-I 0 W/m 12,8 C 14,9 C 11,3 km/h (2 Bft) 100,00 %
16.05.2024 21:06 15,1 C 87 % 0,0 l/m 0,0 km/h (0 Bft) NO 42 0 min 0 min 0,000 mm 0,0 UV-I 0 W/m 13,0 C 15,1 C 16,1 km/h (3 Bft) 97,92 %
16.05.2024 21:05 15,1 C 87 % 0,0 l/m 0,0 km/h (0 Bft) NO 42 0 min 0 min 0,000 mm 0,0 UV-I 0 W/m 13,0 C 15,1 C 16,1 km/h (3 Bft) 97,92 %
16.05.2024 21:02 15,2 C 87 % 0,0 l/m 2,2 km/h (1 Bft) N-NO 26 0 min 0 min 0,025 mm 0,0 UV-I 5 W/m 13,0 C 15,2 C 14,5 km/h (3 Bft) 97,92 %
16.05.2024 21:00 15,3 C 86 % 0,0 l/m 1,3 km/h (1 Bft) O-NO 69 0 min 0 min 0,000 mm 0,0 UV-I 5 W/m 13,0 C 15,3 C 6,4 km/h (2 Bft) 97,37 %
16.05.2024 20:58 15,4 C 86 % 0,0 l/m 3,1 km/h (1 Bft) NO 37 0 min 0 min 0,000 mm 0,0 UV-I 7 W/m 13,1 C 15,4 C 9,7 km/h (2 Bft) 95,92 %
16.05.2024 20:56 15,4 C 86 % 0,0 l/m 3,8 km/h (1 Bft) NO 44 0 min 0 min 0,000 mm 0,0 UV-I 9 W/m 13,1 C 15,4 C 8,0 km/h (2 Bft) 97,92 %
16.05.2024 20:54 15,5 C 86 % 0,0 l/m 3,0 km/h (1 Bft) N-NO 27 2 min 0 min 0,000 mm 0,0 UV-I 10 W/m 13,2 C 15,5 C 8,0 km/h (2 Bft) 98,00 %
16.05.2024 20:52 15,6 C 85 % 0,0 l/m 4,1 km/h (1 Bft) N-NO 27 0 min 0 min 0,000 mm 0,0 UV-I 11 W/m 13,1 C 15,6 C 8,0 km/h (2 Bft) 100,00 %
16.05.2024 20:50 15,7 C 85 % 0,0 l/m 4,3 km/h (1 Bft) NO 38 0 min 0 min 0,000 mm 0,0 UV-I 12 W/m 13,2 C 15,7 C 8,0 km/h (2 Bft) 97,92 %
16.05.2024 20:48 15,8 C 85 % 0,0 l/m 2,6 km/h (1 Bft) NO 40 0 min 0 min 0,000 mm 0,0 UV-I 14 W/m 13,3 C 15,8 C 8,0 km/h (2 Bft) 100,00 %
16.05.2024 20:46 15,8 C 84 % 0,0 l/m 4,9 km/h (1 Bft) N-NO 32 0 min 0 min 0,000 mm 0,0 UV-I 16 W/m 13,1 C 15,8 C 11,3 km/h (2 Bft) 98,11 %
16.05.2024 20:44 15,9 C 84 % 0,0 l/m 3,3 km/h (1 Bft) NO 44 0 min 0 min 0,000 mm 0,0 UV-I 17 W/m 13,2 C 15,9 C 11,3 km/h (2 Bft) 98,11 %
16.05.2024 20:42 16,1 C 83 % 0,0 l/m 1,7 km/h (1 Bft) N-NO 28 0 min 0 min 0,000 mm 0,0 UV-I 19 W/m 13,2 C 16,1 C 8,0 km/h (2 Bft) 97,14 %
16.05.2024 20:40 16,2 C 83 % 0,0 l/m 0,5 km/h (0 Bft) O-NO 58 0 min 0 min 0,000 mm 0,0 UV-I 21 W/m 13,3 C 16,2 C 6,4 km/h (2 Bft) 98,36 %
16.05.2024 20:38 16,2 C 83 % 0,0 l/m 1,2 km/h (1 Bft) NO 46 0 min 0 min 0,000 mm 0,0 UV-I 22 W/m 13,3 C 16,2 C 4,8 km/h (1 Bft) 97,50 %
16.05.2024 20:36 16,3 C 82 % 0,0 l/m 0,7 km/h (0 Bft) NO 39 0 min 0 min 0,000 mm 0,0 UV-I 25 W/m 13,2 C 16,3 C 6,4 km/h (2 Bft) 97,73 %
16.05.2024 20:34 16,4 C 82 % 0,0 l/m 0,8 km/h (0 Bft) NO 44 0 min 0 min 0,000 mm 0,0 UV-I 27 W/m 13,3 C 16,4 C 4,8 km/h (1 Bft) 97,96 %
16.05.2024 20:32 16,4 C 82 % 0,0 l/m 0,3 km/h (0 Bft) NO 38 0 min 0 min 0,000 mm 0,0 UV-I 29 W/m 13,3 C 16,4 C 6,4 km/h (2 Bft) 97,96 %
16.05.2024 20:30 16,5 C 82 % 0,0 l/m 0,6 km/h (0 Bft) NO 41 0 min 0 min 0,000 mm 0,0 UV-I 32 W/m 13,4 C 16,5 C 3,2 km/h (1 Bft) 95,24 %
16.05.2024 20:28 16,6 C 81 % 0,0 l/m 0,0 km/h (0 Bft) NO 34 0 min 0 min 0,000 mm 0,0 UV-I 33 W/m 13,3 C 16,6 C 0,0 km/h (0 Bft) 93,75 %
16.05.2024 20:26 16,6 C 81 % 0,0 l/m 0,8 km/h (0 Bft) NO 34 0 min 0 min 0,000 mm 0,0 UV-I 35 W/m 13,3 C 16,6 C 4,8 km/h (1 Bft) 95,74 %
16.05.2024 20:24 16,7 C 81 % 0,0 l/m 0,2 km/h (0 Bft) NO 37 0 min 0 min 0,000 mm 0,0 UV-I 37 W/m 13,4 C 16,7 C 3,2 km/h (1 Bft) 96,08 %
16.05.2024 20:22 16,7 C 81 % 0,0 l/m 2,2 km/h (1 Bft) NO 36 0 min 0 min 0,000 mm 0,0 UV-I 39 W/m 13,4 C 16,7 C 6,4 km/h (2 Bft) 97,22 %
16.05.2024 20:20 16,8 C 81 % 0,0 l/m 1,3 km/h (1 Bft) N-NO 32 0 min 0 min 0,000 mm 0,0 UV-I 39 W/m 13,5 C 16,8 C 8,0 km/h (2 Bft) 100,00 %
16.05.2024 20:18 16,8 C 80 % 0,0 l/m 0,0 km/h (0 Bft) N-NO 30 0 min 0 min 0,000 mm 0,0 UV-I 40 W/m 13,3 C 16,8 C 1,6 km/h (1 Bft) 98,00 %
16.05.2024 20:16 16,8 C 80 % 0,0 l/m 0,0 km/h (0 Bft) N-NO 30 0 min 0 min 0,000 mm 0,0 UV-I 41 W/m 13,3 C 16,8 C 1,6 km/h (1 Bft) 100,00 %
16.05.2024 20:14 16,9 C 80 % 0,0 l/m 0,1 km/h (0 Bft) N-NO 29 0 min 0 min 0,000 mm 0,0 UV-I 42 W/m 13,4 C 16,9 C 3,2 km/h (1 Bft) 98,00 %
16.05.2024 20:12 16,9 C 80 % 0,0 l/m 0,5 km/h (0 Bft) N-NO 29 0 min 0 min 0,000 mm 0,0 UV-I 46 W/m 13,4 C 16,9 C 3,2 km/h (1 Bft) 100,00 %
16.05.2024 20:10 17,0 C 80 % 0,0 l/m 0,6 km/h (0 Bft) NO 55 0 min 0 min 0,000 mm 0,0 UV-I 46 W/m 13,5 C 16,9 C 3,2 km/h (1 Bft) 100,00 %
16.05.2024 20:09 17,0 C 80 % 0,0 l/m 0,9 km/h (0 Bft) O-NO 57 0 min 0 min 0,000 mm 0,0 UV-I 48 W/m 13,5 C 17,0 C 6,4 km/h (2 Bft) 100,00 %
16.05.2024 20:06 17,0 C 80 % 0,0 l/m 1,0 km/h (0 Bft) O-NO 58 0 min 0 min 0,000 mm 0,0 UV-I 53 W/m 13,5 C 17,0 C 4,8 km/h (1 Bft) 98,00 %
16.05.2024 20:04 17,0 C 80 % 0,0 l/m 0,8 km/h (0 Bft) NO 51 0 min 0 min 0,000 mm 0,0 UV-I 59 W/m 13,5 C 17,0 C 6,4 km/h (2 Bft) 100,00 %
16.05.2024 20:02 17,1 C 80 % 0,0 l/m 3,3 km/h (1 Bft) O-NO 57 0 min 0 min 0,076 mm 0,0 UV-I 69 W/m 13,6 C 17,1 C 8,0 km/h (2 Bft) 97,92 %
16.05.2024 20:00 17,1 C 81 % 0,0 l/m 0,9 km/h (0 Bft) NO 39 0 min 0 min 0,000 mm 0,0 UV-I 80 W/m 13,8 C 17,0 C 4,8 km/h (1 Bft) 95,83 %
16.05.2024 19:58 17,0 C 81 % 0,0 l/m 0,0 km/h (0 Bft) N-NO 24 2 min 0 min 0,000 mm 0,0 UV-I 89 W/m 13,7 C 17,0 C 1,6 km/h (1 Bft) 96,00 %
16.05.2024 19:56 17,0 C 81 % 0,0 l/m 0,0 km/h (0 Bft) NO 35 2 min 0 min 0,000 mm 0,0 UV-I 103 W/m 13,7 C 17,0 C 0,0 km/h (0 Bft) 97,87 %
16.05.2024 19:54 17,0 C 82 % 0,0 l/m 1,0 km/h (0 Bft) NO 35 2 min 0 min 0,000 mm 0,0 UV-I 128 W/m 13,9 C 17,0 C 4,8 km/h (1 Bft) 97,37 %
16.05.2024 19:52 17,0 C 82 % 0,0 l/m 3,7 km/h (1 Bft) NO 56 2 min 0 min 0,000 mm 0,0 UV-I 153 W/m 13,9 C 17,0 C 9,7 km/h (2 Bft) 93,62 %
16.05.2024 19:50 17,0 C 82 % 0,0 l/m 2,0 km/h (1 Bft) NO 36 2 min 0 min 0,000 mm 0,0 UV-I 158 W/m 13,9 C 17,0 C 9,7 km/h (2 Bft) 100,00 %
16.05.2024 19:48 17,0 C 83 % 0,0 l/m 3,0 km/h (1 Bft) NO 38 2 min 0 min 0,000 mm 0,0 UV-I 168 W/m 14,1 C 17,0 C 8,0 km/h (2 Bft) 100,00 %
16.05.2024 19:46 17,1 C 83 % 0,0 l/m 2,4 km/h (1 Bft) N-NO 27 2 min 0 min 0,000 mm 0,0 UV-I 176 W/m 14,2 C 17,1 C 12,9 km/h (3 Bft) 100,00 %
16.05.2024 19:44 17,1 C 83 % 0,0 l/m 2,5 km/h (1 Bft) NO 38 2 min 0 min 0,000 mm 0,0 UV-I 179 W/m 14,2 C 17,1 C 8,0 km/h (2 Bft) 100,00 %
16.05.2024 19:42 17,1 C 84 % 0,0 l/m 2,2 km/h (1 Bft) NO 40 2 min 0 min 0,000 mm 0,0 UV-I 163 W/m 14,4 C 17,1 C 8,0 km/h (2 Bft) 100,00 %
16.05.2024 19:40 17,2 C 84 % 0,0 l/m 1,6 km/h (1 Bft) NO 37 1 min 0 min 0,000 mm 0,0 UV-I 175 W/m 14,5 C 17,2 C 8,0 km/h (2 Bft) 100,00 %
16.05.2024 19:39 17,2 C 84 % 0,0 l/m 0,8 km/h (0 Bft) NO 38 3 min 0 min 0,000 mm 0,0 UV-I 125 W/m 14,5 C 17,2 C 6,4 km/h (2 Bft) 98,63 %
16.05.2024 19:36 17,2 C 83 % 0,0 l/m 0,0 km/h (0 Bft) NO 47 2 min 0 min 0,000 mm 0,0 UV-I 122 W/m 14,3 C 17,2 C 1,6 km/h (1 Bft) 97,92 %
16.05.2024 19:34 17,3 C 83 % 0,0 l/m 0,8 km/h (0 Bft) N-NO 30 2 min 0 min 0,000 mm 0,0 UV-I 164 W/m 14,4 C 17,3 C 4,8 km/h (1 Bft) 100,00 %
16.05.2024 19:32 17,3 C 83 % 0,0 l/m 1,5 km/h (1 Bft) O-NO 69 2 min 0 min 0,000 mm 0,0 UV-I 125 W/m 14,4 C 17,3 C 4,8 km/h (1 Bft) 100,00 %
16.05.2024 19:30 17,4 C 82 % 0,0 l/m 1,2 km/h (1 Bft) NO 40 0 min 0 min 0,000 mm 0,0 UV-I 104 W/m 14,3 C 17,4 C 6,4 km/h (2 Bft) 100,00 %
16.05.2024 19:28 17,4 C 82 % 0,0 l/m 2,8 km/h (1 Bft) N-NO 31 0 min 0 min 0,000 mm 0,0 UV-I 104 W/m 14,3 C 17,4 C 9,7 km/h (2 Bft) 93,75 %
16.05.2024 19:26 17,5 C 82 % 0,0 l/m 1,6 km/h (1 Bft) NO 35 0 min 0 min 0,000 mm 0,0 UV-I 99 W/m 14,4 C 17,5 C 9,7 km/h (2 Bft) 95,83 %
16.05.2024 19:24 17,6 C 81 % 0,0 l/m 1,2 km/h (1 Bft) NO 40 0 min 0 min 0,000 mm 0,0 UV-I 95 W/m 14,3 C 17,6 C 8,0 km/h (2 Bft) 97,30 %
16.05.2024 19:22 17,6 C 81 % 0,0 l/m 1,4 km/h (1 Bft) NO 47 0 min 0 min 0,000 mm 0,0 UV-I 97 W/m 14,3 C 17,6 C 6,4 km/h (2 Bft) 93,62 %
16.05.2024 19:20 17,7 C 81 % 0,0 l/m 1,6 km/h (1 Bft) O-NO 73 0 min 0 min 0,000 mm 0,0 UV-I 99 W/m 14,4 C 17,6 C 6,4 km/h (2 Bft) 94,34 %
16.05.2024 19:18 17,7 C 81 % 0,0 l/m 2,8 km/h (1 Bft) O-NO 76 0 min 0 min 0,000 mm 0,0 UV-I 103 W/m 14,4 C 17,7 C 8,0 km/h (2 Bft) 97,62 %
16.05.2024 19:16 17,7 C 80 % 0,0 l/m 1,7 km/h (1 Bft) NO 53 0 min 0 min 0,000 mm 0,0 UV-I 105 W/m 14,2 C 17,7 C 8,0 km/h (2 Bft) 95,56 %
16.05.2024 19:14 17,8 C 80 % 0,0 l/m 2,7 km/h (1 Bft) O-NO 65 0 min 0 min 0,000 mm 0,0 UV-I 106 W/m 14,3 C 17,8 C 8,0 km/h (2 Bft) 97,87 %
16.05.2024 19:12 17,9 C 80 % 0,0 l/m 2,7 km/h (1 Bft) NO 46 0 min 0 min 0,000 mm 0,0 UV-I 109 W/m 14,4 C 17,9 C 9,7 km/h (2 Bft) 98,15 %
16.05.2024 19:10 17,9 C 80 % 0,0 l/m 2,4 km/h (1 Bft) NO 54 0 min 0 min 0,000 mm 0,0 UV-I 114 W/m 14,4 C 17,9 C 6,4 km/h (2 Bft) 97,44 %
16.05.2024 19:08 18,0 C 79 % 0,0 l/m 5,0 km/h (1 Bft) NO 44 0 min 0 min 0,000 mm 0,5 UV-I 120 W/m 14,3 C 18,0 C 14,5 km/h (3 Bft) 98,00 %
16.05.2024 19:06 18,1 C 80 % 0,0 l/m 2,6 km/h (1 Bft) O-NO 74 0 min 0 min 0,000 mm 0,5 UV-I 126 W/m 14,6 C 18,1 C 6,4 km/h (2 Bft) 100,00 %
16.05.2024 19:04 18,1 C 81 % 0,0 l/m 3,9 km/h (1 Bft) O 80 0 min 0 min 0,000 mm 0,5 UV-I 131 W/m 14,8 C 18,1 C 12,9 km/h (3 Bft) 97,44 %
16.05.2024 19:02 18,1 C 81 % 0,0 l/m 2,0 km/h (1 Bft) O-NO 65 2 min 0 min 0,178 mm 0,5 UV-I 168 W/m 14,8 C 18,1 C 9,7 km/h (2 Bft) 97,92 %
16.05.2024 19:00 18,2 C 80 % 0,0 l/m 1,9 km/h (1 Bft) NO 43 2 min 0 min 0,000 mm 0,6 UV-I 222 W/m 14,7 C 18,2 C 11,3 km/h (2 Bft) 96,15 %
16.05.2024 18:58 18,2 C 80 % 0,0 l/m 2,5 km/h (1 Bft) N-NO 22 2 min 0 min 0,000 mm 0,6 UV-I 249 W/m 14,7 C 18,2 C 9,7 km/h (2 Bft) 97,73 %
16.05.2024 18:56 18,2 C 80 % 0,0 l/m 1,7 km/h (1 Bft) NO 38 2 min 0 min 0,000 mm 0,6 UV-I 267 W/m 14,7 C 18,2 C 6,4 km/h (2 Bft) 98,04 %
16.05.2024 18:54 18,2 C 79 % 0,0 l/m 2,4 km/h (1 Bft) NO 46 2 min 0 min 0,000 mm 0,6 UV-I 248 W/m 14,5 C 18,2 C 8,0 km/h (2 Bft) 97,44 %
16.05.2024 18:52 18,2 C 79 % 0,0 l/m 3,4 km/h (1 Bft) O-NO 59 2 min 0 min 0,000 mm 0,7 UV-I 237 W/m 14,5 C 18,2 C 9,7 km/h (2 Bft) 98,25 %
16.05.2024 18:50 18,2 C 80 % 0,0 l/m 1,7 km/h (1 Bft) NO 42 2 min 0 min 0,000 mm 0,7 UV-I 243 W/m 14,7 C 18,2 C 8,0 km/h (2 Bft) 100,00 %
16.05.2024 18:48 18,2 C 80 % 0,0 l/m 1,3 km/h (1 Bft) O-NO 72 2 min 0 min 0,000 mm 0,7 UV-I 249 W/m 14,7 C 18,2 C 6,4 km/h (2 Bft) 98,04 %
16.05.2024 18:46 18,2 C 80 % 0,0 l/m 2,7 km/h (1 Bft) N-NO 30 2 min 0 min 0,000 mm 0,7 UV-I 254 W/m 14,7 C 18,2 C 9,7 km/h (2 Bft) 97,62 %
16.05.2024 18:44 18,2 C 80 % 0,0 l/m 1,7 km/h (1 Bft) NO 40 2 min 0 min 0,000 mm 0,7 UV-I 254 W/m 14,7 C 18,2 C 8,0 km/h (2 Bft) 98,04 %
16.05.2024 18:42 18,2 C 80 % 0,0 l/m 1,1 km/h (1 Bft) O-NO 67 2 min 0 min 0,000 mm 0,8 UV-I 286 W/m 14,7 C 18,2 C 6,4 km/h (2 Bft) 100,00 %
16.05.2024 18:40 18,2 C 80 % 0,0 l/m 1,3 km/h (1 Bft) O-NO 59 2 min 0 min 0,000 mm 0,8 UV-I 286 W/m 14,7 C 18,2 C 4,8 km/h (1 Bft) 98,04 %
16.05.2024 18:38 18,3 C 80 % 0,0 l/m 2,9 km/h (1 Bft) NO 46 2 min 0 min 0,000 mm 0,8 UV-I 258 W/m 14,8 C 18,3 C 8,0 km/h (2 Bft) 97,22 %
16.05.2024 18:36 18,3 C 80 % 0,0 l/m 4,9 km/h (1 Bft) N-NO 24 2 min 0 min 0,000 mm 0,8 UV-I 290 W/m 14,8 C 18,3 C 9,7 km/h (2 Bft) 97,92 %
16.05.2024 18:34 18,3 C 79 % 0,0 l/m 2,1 km/h (1 Bft) N 11 2 min 0 min 0,000 mm 0,8 UV-I 293 W/m 14,6 C 18,3 C 8,0 km/h (2 Bft) 100,00 %
16.05.2024 18:32 18,3 C 79 % 0,0 l/m 5,9 km/h (2 Bft) NO 35 2 min 0 min 0,000 mm 0,8 UV-I 283 W/m 14,6 C 18,3 C 14,5 km/h (3 Bft) 100,00 %
16.05.2024 18:30 18,4 C 80 % 0,0 l/m 3,2 km/h (1 Bft) NO 36 2 min 0 min 0,000 mm 0,8 UV-I 293 W/m 14,9 C 18,4 C 9,7 km/h (2 Bft) 97,92 %
16.05.2024 18:28 18,4 C 80 % 0,0 l/m 3,0 km/h (1 Bft) N-NO 24 2 min 0 min 0,000 mm 0,9 UV-I 303 W/m 14,9 C 18,4 C 6,4 km/h (2 Bft) 97,96 %
16.05.2024 18:26 18,4 C 81 % 0,0 l/m 3,1 km/h (1 Bft) N-NO 30 2 min 0 min 0,000 mm 0,9 UV-I 297 W/m 15,1 C 18,4 C 8,0 km/h (2 Bft) 97,96 %
16.05.2024 18:24 18,4 C 81 % 0,0 l/m 3,4 km/h (1 Bft) O 93 2 min 0 min 0,000 mm 0,9 UV-I 334 W/m 15,1 C 18,4 C 9,7 km/h (2 Bft) 97,87 %
16.05.2024 18:22 18,4 C 82 % 0,0 l/m 1,3 km/h (1 Bft) O-NO 74 2 min 0 min 0,000 mm 1,0 UV-I 396 W/m 15,3 C 18,3 C 6,4 km/h (2 Bft) 100,00 %
16.05.2024 18:20 18,3 C 81 % 0,0 l/m 1,4 km/h (1 Bft) O-NO 67 2 min 0 min 0,000 mm 1,0 UV-I 374 W/m 15,0 C 18,3 C 8,0 km/h (2 Bft) 100,00 %
16.05.2024 18:18 18,3 C 81 % 0,0 l/m 2,4 km/h (1 Bft) O 79 2 min 0 min 0,000 mm 1,0 UV-I 320 W/m 15,0 C 18,3 C 11,3 km/h (2 Bft) 100,00 %
16.05.2024 18:16 18,3 C 82 % 0,0 l/m 1,8 km/h (1 Bft) O-NO 65 2 min 0 min 0,000 mm 1,0 UV-I 368 W/m 15,2 C 18,3 C 12,9 km/h (3 Bft) 100,00 %
16.05.2024 18:14 18,3 C 82 % 0,0 l/m 1,8 km/h (1 Bft) O-NO 69 2 min 0 min 0,000 mm 1,0 UV-I 445 W/m 15,2 C 18,3 C 8,0 km/h (2 Bft) 97,96 %
16.05.2024 18:12 18,3 C 83 % 0,0 l/m 0,1 km/h (0 Bft) O 79 2 min 0 min 0,000 mm 1,0 UV-I 412 W/m 15,4 C 18,3 C 1,6 km/h (1 Bft) 97,87 %
16.05.2024 18:10 18,3 C 81 % 0,0 l/m 1,6 km/h (1 Bft) NO 54 2 min 0 min 0,000 mm 0,9 UV-I 268 W/m 15,0 C 18,3 C 14,5 km/h (3 Bft) 93,88 %
16.05.2024 18:08 18,4 C 81 % 0,0 l/m 4,0 km/h (1 Bft) NO 45 0 min 0 min 0,000 mm 0,9 UV-I 236 W/m 15,1 C 18,4 C 9,7 km/h (2 Bft) 97,96 %
16.05.2024 18:06 18,4 C 81 % 0,0 l/m 4,2 km/h (1 Bft) O-NO 68 2 min 0 min 0,000 mm 0,9 UV-I 263 W/m 15,1 C 18,4 C 12,9 km/h (3 Bft) 97,30 %
16.05.2024 18:04 18,5 C 81 % 0,0 l/m 0,9 km/h (0 Bft) NO 51 0 min 0 min 0,000 mm 0,9 UV-I 241 W/m 15,2 C 18,5 C 4,8 km/h (1 Bft) 97,96 %
16.05.2024 18:02 18,6 C 80 % 0,0 l/m 1,2 km/h (1 Bft) NO 41 0 min 0 min 0,279 mm 0,9 UV-I 239 W/m 15,1 C 18,6 C 6,4 km/h (2 Bft) 97,92 %
16.05.2024 18:00 18,6 C 80 % 0,0 l/m 2,3 km/h (1 Bft) O 91 0 min 0 min 0,000 mm 0,9 UV-I 236 W/m 15,1 C 18,6 C 11,3 km/h (2 Bft) 93,75 %
16.05.2024 17:58 18,7 C 80 % 0,0 l/m 1,4 km/h (1 Bft) O-NO 62 0 min 0 min 0,000 mm 0,9 UV-I 237 W/m 15,2 C 18,7 C 9,7 km/h (2 Bft) 95,83 %
16.05.2024 17:56 18,8 C 80 % 0,0 l/m 7,2 km/h (2 Bft) O 84 0 min 0 min 0,000 mm 0,9 UV-I 242 W/m 15,3 C 18,8 C 14,5 km/h (3 Bft) 95,92 %
16.05.2024 17:54 18,9 C 80 % 0,0 l/m 3,4 km/h (1 Bft) O 82 0 min 0 min 0,000 mm 1,0 UV-I 231 W/m 15,4 C 18,9 C 9,7 km/h (2 Bft) 94,87 %
16.05.2024 17:52 19,0 C 80 % 0,0 l/m 1,1 km/h (1 Bft) N-NO 19 0 min 0 min 0,000 mm 1,0 UV-I 216 W/m 15,5 C 19,0 C 6,4 km/h (2 Bft) 100,00 %
16.05.2024 17:50 19,1 C 80 % 0,0 l/m 5,0 km/h (1 Bft) NO 55 0 min 0 min 0,000 mm 1,0 UV-I 213 W/m 15,6 C 19,1 C 12,9 km/h (3 Bft) 100,00 %
16.05.2024 17:48 19,2 C 80 % 0,0 l/m 1,6 km/h (1 Bft) O-NO 61 0 min 0 min 0,000 mm 1,0 UV-I 215 W/m 15,7 C 19,2 C 8,0 km/h (2 Bft) 100,00 %
16.05.2024 17:46 19,3 C 80 % 0,0 l/m 1,9 km/h (1 Bft) O 94 0 min 0 min 0,000 mm 1,0 UV-I 219 W/m 15,8 C 19,3 C 8,0 km/h (2 Bft) 100,00 %
16.05.2024 17:44 19,3 C 80 % 0,0 l/m 0,7 km/h (0 Bft) O-NO 78 0 min 0 min 0,000 mm 1,1 UV-I 223 W/m 15,8 C 19,3 C 3,2 km/h (1 Bft) 100,00 %
16.05.2024 17:42 19,4 C 80 % 0,0 l/m 3,0 km/h (1 Bft) NO 40 0 min 0 min 0,000 mm 1,1 UV-I 241 W/m 15,9 C 19,4 C 16,1 km/h (3 Bft) 100,00 %
16.05.2024 17:40 19,5 C 80 % 0,0 l/m 1,4 km/h (1 Bft) O 98 0 min 0 min 0,000 mm 1,1 UV-I 238 W/m 16,0 C 19,5 C 6,4 km/h (2 Bft) 100,00 %
16.05.2024 17:38 19,6 C 80 % 0,0 l/m 2,8 km/h (1 Bft) N-NO 19 0 min 0 min 0,000 mm 1,1 UV-I 258 W/m 16,1 C 19,6 C 9,7 km/h (2 Bft) 97,92 %
16.05.2024 17:36 19,7 C 80 % 0,0 l/m 6,3 km/h (2 Bft) O-NO 62 2 min 0 min 0,000 mm 1,3 UV-I 326 W/m 16,1 C 19,7 C 16,1 km/h (3 Bft) 100,00 %
16.05.2024 17:34 19,7 C 81 % 0,0 l/m 5,0 km/h (1 Bft) N-NO 23 2 min 0 min 0,000 mm 1,4 UV-I 366 W/m 16,3 C 19,7 C 14,5 km/h (3 Bft) 100,00 %
16.05.2024 17:32 19,8 C 80 % 0,0 l/m 3,4 km/h (1 Bft) NO 44 2 min 0 min 0,000 mm 1,4 UV-I 520 W/m 16,2 C 19,8 C 11,3 km/h (2 Bft) 98,04 %
16.05.2024 17:30 19,8 C 81 % 0,0 l/m 7,0 km/h (2 Bft) NO 37 2 min 0 min 0,000 mm 1,9 UV-I 530 W/m 16,4 C 19,8 C 17,7 km/h (3 Bft) 97,67 %
16.05.2024 17:28 19,8 C 82 % 0,0 l/m 3,9 km/h (1 Bft) NO 38 2 min 0 min 0,000 mm 1,7 UV-I 603 W/m 16,6 C 19,7 C 12,9 km/h (3 Bft) 98,28 %
16.05.2024 17:26 19,7 C 82 % 0,0 l/m 6,0 km/h (2 Bft) N-NO 28 2 min 0 min 0,000 mm 1,8 UV-I 728 W/m 16,5 C 19,6 C 12,9 km/h (3 Bft) 97,37 %
16.05.2024 17:24 19,6 C 82 % 0,0 l/m 1,6 km/h (1 Bft) NO 45 2 min 0 min 0,000 mm 1,9 UV-I 712 W/m 16,4 C 19,6 C 8,0 km/h (2 Bft) 100,00 %
16.05.2024 17:22 19,6 C 81 % 0,0 l/m 5,6 km/h (2 Bft) O-NO 74 2 min 0 min 0,000 mm 2,0 UV-I 695 W/m 16,2 C 19,5 C 12,9 km/h (3 Bft) 97,67 %
16.05.2024 17:20 19,5 C 82 % 0,0 l/m 3,3 km/h (1 Bft) NO 40 2 min 0 min 0,000 mm 2,1 UV-I 729 W/m 16,3 C 19,4 C 9,7 km/h (2 Bft) 100,00 %
16.05.2024 17:18 19,4 C 83 % 0,0 l/m 1,7 km/h (1 Bft) NO 52 2 min 0 min 0,000 mm 2,1 UV-I 558 W/m 16,4 C 19,3 C 6,4 km/h (2 Bft) 97,30 %
16.05.2024 17:16 19,3 C 83 % 0,0 l/m 2,1 km/h (1 Bft) O-NO 61 2 min 0 min 0,000 mm 1,9 UV-I 562 W/m 16,3 C 19,3 C 8,0 km/h (2 Bft) 98,08 %
16.05.2024 17:14 19,3 C 84 % 0,0 l/m 3,1 km/h (1 Bft) O-NO 70 2 min 0 min 0,000 mm 1,8 UV-I 566 W/m 16,5 C 19,2 C 9,7 km/h (2 Bft) 98,25 %
16.05.2024 17:12 19,2 C 84 % 0,0 l/m 2,9 km/h (1 Bft) N-NO 13 2 min 0 min 0,000 mm 1,8 UV-I 571 W/m 16,4 C 19,1 C 11,3 km/h (2 Bft) 97,30 %
16.05.2024 17:10 19,1 C 85 % 0,0 l/m 2,6 km/h (1 Bft) O-NO 67 2 min 0 min 0,000 mm 2,1 UV-I 575 W/m 16,5 C 19,0 C 8,0 km/h (2 Bft) 100,00 %
16.05.2024 17:08 19,0 C 84 % 0,0 l/m 1,0 km/h (0 Bft) NO 53 2 min 0 min 0,000 mm 2,2 UV-I 580 W/m 16,2 C 18,9 C 4,8 km/h (1 Bft) 100,00 %
16.05.2024 17:06 18,9 C 83 % 0,0 l/m 2,1 km/h (1 Bft) O-NO 67 2 min 0 min 0,000 mm 2,2 UV-I 584 W/m 15,9 C 18,8 C 9,7 km/h (2 Bft) 100,00 %
16.05.2024 17:04 18,8 C 83 % 0,0 l/m 1,3 km/h (1 Bft) NO 53 2 min 0 min 0,000 mm 2,2 UV-I 545 W/m 15,8 C 18,8 C 6,4 km/h (2 Bft) 100,00 %
16.05.2024 17:02 18,8 C 82 % 0,0 l/m 2,1 km/h (1 Bft) O 96 2 min 0 min 0,229 mm 2,0 UV-I 412 W/m 15,7 C 18,7 C 11,3 km/h (2 Bft) 95,83 %
16.05.2024 17:00 18,8 C 82 % 0,0 l/m 3,2 km/h (1 Bft) O-NO 78 2 min 0 min 0,000 mm 1,7 UV-I 371 W/m 15,7 C 18,7 C 9,7 km/h (2 Bft) 95,74 %
16.05.2024 16:58 18,8 C 83 % 0,0 l/m 2,4 km/h (1 Bft) NO 39 0 min 0 min 0,000 mm 1,8 UV-I 323 W/m 15,8 C 18,8 C 6,4 km/h (2 Bft) 93,88 %
16.05.2024 16:56 18,8 C 83 % 0,0 l/m 1,6 km/h (1 Bft) O 90 0 min 0 min 0,000 mm 1,9 UV-I 323 W/m 15,8 C 18,8 C 8,0 km/h (2 Bft) 95,83 %
16.05.2024 16:54 18,8 C 83 % 0,0 l/m 1,5 km/h (1 Bft) NO 53 0 min 0 min 0,000 mm 1,5 UV-I 297 W/m 15,8 C 18,8 C 6,4 km/h (2 Bft) 97,92 %
16.05.2024 16:52 18,8 C 82 % 0,0 l/m 1,2 km/h (1 Bft) O-NO 61 0 min 0 min 0,000 mm 1,5 UV-I 265 W/m 15,7 C 18,8 C 4,8 km/h (1 Bft) 97,92 %
16.05.2024 16:50 18,9 C 82 % 0,0 l/m 0,9 km/h (0 Bft) O-NO 65 0 min 0 min 0,000 mm 1,5 UV-I 263 W/m 15,8 C 18,9 C 4,8 km/h (1 Bft) 95,74 %
16.05.2024 16:48 18,9 C 82 % 0,0 l/m 1,0 km/h (0 Bft) O-NO 59 0 min 0 min 0,000 mm 1,5 UV-I 235 W/m 15,8 C 18,9 C 6,4 km/h (2 Bft) 97,96 %
16.05.2024 16:46 18,9 C 83 % 0,0 l/m 2,3 km/h (1 Bft) O-NO 65 0 min 0 min 0,000 mm 1,5 UV-I 221 W/m 15,9 C 18,9 C 8,0 km/h (2 Bft) 97,30 %
16.05.2024 16:44 18,9 C 84 % 0,0 l/m 1,3 km/h (1 Bft) O 80 0 min 0 min 0,000 mm 1,5 UV-I 220 W/m 16,1 C 18,9 C 6,4 km/h (2 Bft) 97,96 %
16.05.2024 16:42 18,9 C 84 % 0,0 l/m 1,8 km/h (1 Bft) O 86 0 min 0 min 0,000 mm 1,5 UV-I 214 W/m 16,1 C 18,9 C 6,4 km/h (2 Bft) 97,96 %
16.05.2024 16:40 18,9 C 85 % 0,0 l/m 2,7 km/h (1 Bft) NO 49 2 min 0 min 0,000 mm 1,7 UV-I 769 W/m 16,3 C 18,9 C 11,3 km/h (2 Bft) 97,96 %
16.05.2024 16:38 18,9 C 86 % 0,0 l/m 5,8 km/h (2 Bft) O-NO 66 2 min 0 min 0,000 mm 2,7 UV-I 889 W/m 16,5 C 18,8 C 11,3 km/h (2 Bft) 97,92 %
16.05.2024 16:36 18,8 C 86 % 0,0 l/m 2,0 km/h (1 Bft) NO 51 2 min 0 min 0,000 mm 2,5 UV-I 451 W/m 16,4 C 18,7 C 9,7 km/h (2 Bft) 95,92 %
16.05.2024 16:34 18,7 C 87 % 0,0 l/m 2,2 km/h (1 Bft) NO 51 2 min 0 min 0,000 mm 2,3 UV-I 630 W/m 16,5 C 18,6 C 8,0 km/h (2 Bft) 100,00 %
16.05.2024 16:32 18,6 C 88 % 0,0 l/m 3,4 km/h (1 Bft) O-NO 69 2 min 0 min 0,000 mm 2,7 UV-I 793 W/m 16,6 C 18,3 C 8,0 km/h (2 Bft) 94,23 %
16.05.2024 16:30 18,3 C 87 % 0,0 l/m 3,9 km/h (1 Bft) NO 50 2 min 0 min 0,000 mm 2,9 UV-I 858 W/m 16,1 C 18,2 C 11,3 km/h (2 Bft) 97,92 %
16.05.2024 16:28 18,2 C 86 % 0,0 l/m 1,7 km/h (1 Bft) O 86 2 min 0 min 0,000 mm 2,8 UV-I 629 W/m 15,8 C 18,1 C 8,0 km/h (2 Bft) 97,92 %
16.05.2024 16:26 18,1 C 85 % 0,0 l/m 5,3 km/h (1 Bft) O 80 0 min 0 min 0,000 mm 2,0 UV-I 220 W/m 15,5 C 18,1 C 8,0 km/h (2 Bft) 100,00 %
16.05.2024 16:24 18,1 C 86 % 0,0 l/m 3,2 km/h (1 Bft) O-NO 63 0 min 0 min 0,000 mm 1,6 UV-I 180 W/m 15,7 C 18,1 C 9,7 km/h (2 Bft) 100,00 %
16.05.2024 16:22 18,1 C 87 % 0,0 l/m 3,0 km/h (1 Bft) O-NO 67 2 min 0 min 0,000 mm 1,9 UV-I 564 W/m 15,9 C 18,1 C 9,7 km/h (2 Bft) 100,00 %
16.05.2024 16:20 18,1 C 86 % 0,0 l/m 1,4 km/h (1 Bft) O 88 1 min 0 min 0,000 mm 2,5 UV-I 642 W/m 15,7 C 18,0 C 6,4 km/h (2 Bft) 100,00 %
16.05.2024 16:19 18,0 C 85 % 0,0 l/m 3,7 km/h (1 Bft) O 81 0 min 0 min 0,000 mm 2,0 UV-I 210 W/m 15,4 C 18,0 C 11,3 km/h (2 Bft) 98,70 %
16.05.2024 16:16 18,0 C 86 % 0,0 l/m 2,2 km/h (1 Bft) O-NO 78 0 min 0 min 0,000 mm 2,2 UV-I 359 W/m 15,6 C 18,0 C 6,4 km/h (2 Bft) 100,00 %
16.05.2024 16:14 18,0 C 87 % 0,0 l/m 3,0 km/h (1 Bft) O 83 2 min 0 min 0,000 mm 2,2 UV-I 396 W/m 15,8 C 17,9 C 9,7 km/h (2 Bft) 100,00 %
16.05.2024 16:12 17,9 C 87 % 0,0 l/m 0,8 km/h (0 Bft) O-NO 67 2 min 0 min 0,000 mm 2,2 UV-I 387 W/m 15,7 C 17,9 C 4,8 km/h (1 Bft) 100,00 %
16.05.2024 16:10 17,9 C 87 % 0,0 l/m 1,2 km/h (1 Bft) O 100 0 min 0 min 0,000 mm 2,1 UV-I 314 W/m 15,7 C 17,9 C 4,8 km/h (1 Bft) 100,00 %
16.05.2024 16:08 17,9 C 87 % 0,0 l/m 1,4 km/h (1 Bft) O-NO 61 0 min 0 min 0,000 mm 2,1 UV-I 325 W/m 15,7 C 17,9 C 6,4 km/h (2 Bft) 100,00 %
16.05.2024 16:06 17,9 C 87 % 0,0 l/m 0,1 km/h (0 Bft) O-NO 68 0 min 0 min 0,000 mm 1,9 UV-I 293 W/m 15,7 C 17,8 C 1,6 km/h (1 Bft) 100,00 %
16.05.2024 16:04 17,8 C 88 % 0,0 l/m 1,4 km/h (1 Bft) NO 50 0 min 0 min 0,000 mm 2,0 UV-I 321 W/m 15,8 C 17,8 C 6,4 km/h (2 Bft) 97,96 %
16.05.2024 16:02 17,8 C 89 % 0,0 l/m 1,2 km/h (1 Bft) NO 55 2 min 0 min 0,203 mm 2,5 UV-I 401 W/m 16,0 C 17,7 C 6,4 km/h (2 Bft) 97,92 %
16.05.2024 16:00 17,7 C 89 % 0,0 l/m 0,1 km/h (0 Bft) O 92 2 min 0 min 0,000 mm 2,3 UV-I 588 W/m 15,9 C 17,6 C 3,2 km/h (1 Bft) 97,92 %
16.05.2024 15:58 17,6 C 90 % 0,0 l/m 1,3 km/h (1 Bft) O-NO 58 2 min 0 min 0,000 mm 2,9 UV-I 668 W/m 15,9 C 17,4 C 6,4 km/h (2 Bft) 97,50 %
16.05.2024 15:56 17,4 C 90 % 0,0 l/m 2,3 km/h (1 Bft) O 96 2 min 0 min 0,000 mm 2,5 UV-I 703 W/m 15,7 C 17,3 C 6,4 km/h (2 Bft) 100,00 %
16.05.2024 15:54 17,3 C 91 % 0,0 l/m 2,6 km/h (1 Bft) O 82 2 min 0 min 0,000 mm 2,6 UV-I 954 W/m 15,8 C 17,1 C 6,4 km/h (2 Bft) 100,00 %
16.05.2024 15:52 17,1 C 91 % 0,0 l/m 2,4 km/h (1 Bft) O 86 2 min 0 min 0,000 mm 3,1 UV-I 754 W/m 15,6 C 16,9 C 6,4 km/h (2 Bft) 100,00 %
16.05.2024 15:50 16,9 C 91 % 0,0 l/m 0,9 km/h (0 Bft) O 79 2 min 0 min 0,000 mm 2,4 UV-I 504 W/m 15,4 C 16,8 C 4,8 km/h (1 Bft) 100,00 %
16.05.2024 15:48 16,8 C 90 % 0,0 l/m 1,3 km/h (1 Bft) O-NO 68 0 min 0 min 0,000 mm 2,0 UV-I 387 W/m 15,1 C 16,7 C 9,7 km/h (2 Bft) 97,87 %
16.05.2024 15:46 16,7 C 90 % 0,0 l/m 1,8 km/h (1 Bft) O-NO 69 0 min 0 min 0,000 mm 2,0 UV-I 386 W/m 15,0 C 16,6 C 6,4 km/h (2 Bft) 94,12 %
16.05.2024 15:44 16,6 C 91 % 0,0 l/m 0,1 km/h (0 Bft) O-SO 107 2 min 0 min 0,000 mm 2,3 UV-I 498 W/m 15,1 C 16,6 C 1,6 km/h (1 Bft) 98,08 %
16.05.2024 15:42 16,6 C 91 % 0,0 l/m 1,9 km/h (1 Bft) O-SO 107 2 min 0 min 0,000 mm 2,7 UV-I 605 W/m 15,1 C 16,4 C 4,8 km/h (1 Bft) 97,50 %
16.05.2024 15:40 16,4 C 91 % 0,0 l/m 0,0 km/h (0 Bft) O-NO 68 2 min 0 min 0,000 mm 2,5 UV-I 603 W/m 14,9 C 16,3 C 1,6 km/h (1 Bft) 97,92 %
16.05.2024 15:38 16,3 C 91 % 0,0 l/m 0,0 km/h (0 Bft) O-NO 68 2 min 0 min 0,000 mm 2,3 UV-I 509 W/m 14,8 C 16,2 C 0,0 km/h (0 Bft) 97,92 %
16.05.2024 15:36 16,2 C 90 % 0,0 l/m 0,0 km/h (0 Bft) O-NO 68 2 min 0 min 0,000 mm 2,0 UV-I 410 W/m 14,6 C 16,2 C 0,0 km/h (0 Bft) 95,83 %
16.05.2024 15:34 16,2 C 91 % 0,0 l/m 0,0 km/h (0 Bft) O-NO 68 0 min 0 min 0,000 mm 1,7 UV-I 343 W/m 14,7 C 16,1 C 0,0 km/h (0 Bft) 93,88 %
16.05.2024 15:32 16,1 C 91 % 0,0 l/m 0,0 km/h (0 Bft) O-NO 68 0 min 0 min 0,000 mm 1,6 UV-I 309 W/m 14,6 C 16,1 C 0,0 km/h (0 Bft) 93,88 %
16.05.2024 15:30 16,1 C 91 % 0,0 l/m 0,0 km/h (0 Bft) O-NO 68 0 min 0 min 0,000 mm 1,6 UV-I 297 W/m 14,6 C 16,1 C 0,0 km/h (0 Bft) 94,59 %
16.05.2024 15:28 16,1 C 91 % 0,0 l/m 0,0 km/h (0 Bft) O-NO 68 0 min 0 min 0,000 mm 1,7 UV-I 312 W/m 14,6 C 16,0 C 0,0 km/h (0 Bft) 95,92 %
16.05.2024 15:26 16,0 C 91 % 0,0 l/m 0,1 km/h (0 Bft) O-NO 68 0 min 0 min 0,000 mm 1,7 UV-I 338 W/m 14,5 C 15,9 C 1,6 km/h (1 Bft) 100,00 %
16.05.2024 15:24 15,9 C 91 % 0,0 l/m 0,0 km/h (0 Bft) O-NO 68 0 min 0 min 0,000 mm 1,7 UV-I 324 W/m 14,4 C 15,9 C 0,0 km/h (0 Bft) 100,00 %
16.05.2024 15:22 15,9 C 91 % 0,0 l/m 0,0 km/h (0 Bft) O-NO 68 0 min 0 min 0,000 mm 1,4 UV-I 277 W/m 14,4 C 15,9 C 0,0 km/h (0 Bft) 100,00 %
16.05.2024 15:20 15,9 C 90 % 0,0 l/m 0,3 km/h (0 Bft) O-NO 68 0 min 0 min 0,000 mm 1,3 UV-I 240 W/m 14,3 C 15,9 C 3,2 km/h (1 Bft) 100,00 %
16.05.2024 15:18 15,9 C 90 % 0,0 l/m 0,0 km/h (0 Bft) O-NO 69 0 min 0 min 0,000 mm 1,2 UV-I 215 W/m 14,3 C 15,8 C 0,0 km/h (0 Bft) 100,00 %
16.05.2024 15:16 15,9 C 90 % 0,0 l/m 0,1 km/h (0 Bft) O-NO 69 0 min 0 min 0,000 mm 1,1 UV-I 206 W/m 14,3 C 15,8 C 1,6 km/h (1 Bft) 100,00 %
16.05.2024 15:14 15,9 C 91 % 0,0 l/m 2,8 km/h (1 Bft) O-NO 69 0 min 0 min 0,000 mm 1,2 UV-I 209 W/m 14,4 C 15,8 C 6,4 km/h (2 Bft) 100,00 %
16.05.2024 15:12 15,8 C 90 % 0,0 l/m 0,0 km/h (0 Bft) O-NO 65 0 min 0 min 0,000 mm 1,2 UV-I 213 W/m 14,2 C 15,8 C 0,0 km/h (0 Bft) 100,00 %
16.05.2024 15:10 15,8 C 90 % 0,0 l/m 0,1 km/h (0 Bft) O-NO 65 0 min 0 min 0,000 mm 1,2 UV-I 211 W/m 14,2 C 15,8 C 1,6 km/h (1 Bft) 100,00 %
16.05.2024 15:08 15,8 C 90 % 0,0 l/m 0,1 km/h (0 Bft) O-NO 65 0 min 0 min 0,000 mm 1,2 UV-I 203 W/m 14,2 C 15,8 C 3,2 km/h (1 Bft) 100,00 %
16.05.2024 15:06 15,8 C 90 % 0,0 l/m 0,6 km/h (0 Bft) NO 50 0 min 0 min 0,000 mm 1,1 UV-I 192 W/m 14,2 C 15,8 C 4,8 km/h (1 Bft) 100,00 %
16.05.2024 15:04 15,8 C 90 % 0,0 l/m 0,7 km/h (0 Bft) NO 34 0 min 0 min 0,000 mm 1,0 UV-I 174 W/m 14,2 C 15,8 C 6,4 km/h (2 Bft) 97,92 %
16.05.2024 15:02 15,8 C 90 % 0,0 l/m 0,0 km/h (0 Bft) O-NO 66 0 min 0 min 0,076 mm 0,9 UV-I 160 W/m 14,2 C 15,8 C 0,0 km/h (0 Bft) 96,15 %
16.05.2024 15:00 15,8 C 90 % 0,0 l/m 0,5 km/h (0 Bft) O-NO 66 0 min 0 min 0,000 mm 0,8 UV-I 142 W/m 14,2 C 15,8 C 3,2 km/h (1 Bft) 97,22 %
16.05.2024 14:58 15,8 C 90 % 0,0 l/m 0,8 km/h (0 Bft) O-NO 68 0 min 0 min 0,000 mm 0,7 UV-I 122 W/m 14,2 C 15,8 C 4,8 km/h (1 Bft) 97,92 %
16.05.2024 14:56 15,8 C 90 % 0,0 l/m 0,0 km/h (0 Bft) O-NO 68 0 min 0 min 0,000 mm 0,6 UV-I 111 W/m 14,2 C 15,8 C 1,6 km/h (1 Bft) 97,92 %
16.05.2024 14:54 15,8 C 90 % 0,0 l/m 0,0 km/h (0 Bft) O-NO 69 0 min 0 min 0,000 mm 0,6 UV-I 100 W/m 14,2 C 15,8 C 1,6 km/h (1 Bft) 100,00 %
16.05.2024 14:52 15,9 C 90 % 0,0 l/m 0,0 km/h (0 Bft) O-NO 69 0 min 0 min 0,000 mm 0,5 UV-I 92 W/m 14,3 C 15,9 C 0,0 km/h (0 Bft) 97,37 %
16.05.2024 14:50 15,9 C 90 % 0,0 l/m 0,0 km/h (0 Bft) O-NO 69 0 min 0 min 0,000 mm 0,5 UV-I 87 W/m 14,3 C 15,9 C 1,6 km/h (1 Bft) 100,00 %
16.05.2024 14:48 15,9 C 90 % 0,0 l/m 0,1 km/h (0 Bft) O-NO 71 0 min 0 min 0,000 mm 0,5 UV-I 85 W/m 14,3 C 15,9 C 1,6 km/h (1 Bft) 100,00 %
16.05.2024 14:46 15,9 C 89 % 0,0 l/m 0,1 km/h (0 Bft) O-NO 71 0 min 0 min 0,000 mm 0,5 UV-I 87 W/m 14,1 C 15,9 C 1,6 km/h (1 Bft) 100,00 %
16.05.2024 14:44 15,9 C 89 % 0,0 l/m 1,6 km/h (1 Bft) O-NO 70 0 min 0 min 0,000 mm 0,5 UV-I 91 W/m 14,1 C 15,9 C 4,8 km/h (1 Bft) 100,00 %
16.05.2024 14:42 16,0 C 89 % 0,0 l/m 3,2 km/h (1 Bft) O-NO 71 0 min 0 min 0,000 mm 0,5 UV-I 93 W/m 14,2 C 15,9 C 8,0 km/h (2 Bft) 100,00 %
16.05.2024 14:40 16,0 C 89 % 0,0 l/m 0,1 km/h (0 Bft) O-SO 104 0 min 0 min 0,000 mm 0,5 UV-I 93 W/m 14,2 C 16,0 C 1,6 km/h (1 Bft) 100,00 %
16.05.2024 14:39 16,0 C 89 % 0,2 l/m 0,0 km/h (0 Bft) O-SO 104 0 min 3 min 0,000 mm 0,5 UV-I 93 W/m 14,2 C 15,9 C 0,0 km/h (0 Bft) 98,67 %
16.05.2024 14:36 16,0 C 89 % 0,0 l/m 0,0 km/h (0 Bft) O-SO 104 0 min 0 min 0,000 mm 0,5 UV-I 93 W/m 14,2 C 16,0 C 1,6 km/h (1 Bft) 97,50 %
16.05.2024 14:34 16,0 C 89 % 0,0 l/m 0,0 km/h (0 Bft) O-SO 104 0 min 0 min 0,000 mm 0,5 UV-I 94 W/m 14,2 C 16,0 C 0,0 km/h (0 Bft) 93,88 %
16.05.2024 14:32 16,0 C 89 % 0,0 l/m 0,0 km/h (0 Bft) O-SO 105 0 min 0 min 0,000 mm 0,5 UV-I 97 W/m 14,2 C 16,0 C 1,6 km/h (1 Bft) 95,83 %
16.05.2024 14:30 16,0 C 88 % 0,0 l/m 0,0 km/h (0 Bft) S-SO 161 0 min 0 min 0,000 mm 0,6 UV-I 99 W/m 14,0 C 16,0 C 0,0 km/h (0 Bft) 94,00 %
16.05.2024 14:28 16,0 C 88 % 0,0 l/m 0,1 km/h (0 Bft) S-SO 161 0 min 0 min 0,000 mm 0,6 UV-I 94 W/m 14,0 C 16,0 C 1,6 km/h (1 Bft) 97,30 %
16.05.2024 14:26 16,0 C 88 % 0,0 l/m 0,1 km/h (0 Bft) S-SO 161 0 min 0 min 0,000 mm 0,5 UV-I 83 W/m 14,0 C 16,0 C 3,2 km/h (1 Bft) 95,92 %
16.05.2024 14:24 16,0 C 88 % 0,0 l/m 0,0 km/h (0 Bft) S-SO 161 0 min 0 min 0,000 mm 0,0 UV-I 67 W/m 14,0 C 16,0 C 0,0 km/h (0 Bft) 95,83 %
16.05.2024 14:22 16,0 C 88 % 0,0 l/m 0,0 km/h (0 Bft) S-SO 161 0 min 0 min 0,000 mm 0,0 UV-I 63 W/m 14,0 C 16,0 C 0,0 km/h (0 Bft) 94,00 %
16.05.2024 14:20 16,1 C 89 % 0,0 l/m 0,0 km/h (0 Bft) S-SO 161 0 min 0 min 0,000 mm 0,4 UV-I 75 W/m 14,3 C 16,1 C 1,6 km/h (1 Bft) 97,92 %
16.05.2024 14:18 16,1 C 89 % 0,0 l/m 0,0 km/h (0 Bft) S-SO 161 0 min 0 min 0,000 mm 0,6 UV-I 93 W/m 14,3 C 16,0 C 0,0 km/h (0 Bft) 100,00 %
16.05.2024 14:16 16,0 C 88 % 0,0 l/m 0,0 km/h (0 Bft) S-SO 161 0 min 0 min 0,000 mm 0,7 UV-I 116 W/m 14,0 C 16,0 C 0,0 km/h (0 Bft) 100,00 %
16.05.2024 14:14 16,0 C 88 % 0,0 l/m 0,0 km/h (0 Bft) S-SO 161 0 min 0 min 0,000 mm 0,8 UV-I 145 W/m 14,0 C 16,0 C 0,0 km/h (0 Bft) 100,00 %
16.05.2024 14:12 16,1 C 88 % 0,0 l/m 0,0 km/h (0 Bft) S-SO 161 0 min 0 min 0,000 mm 1,1 UV-I 190 W/m 14,1 C 16,1 C 0,0 km/h (0 Bft) 97,96 %
16.05.2024 14:10 16,1 C 88 % 0,0 l/m 0,0 km/h (0 Bft) S-SO 161 0 min 0 min 0,000 mm 1,3 UV-I 230 W/m 14,1 C 16,0 C 0,0 km/h (0 Bft) 95,92 %
16.05.2024 14:08 16,1 C 88 % 0,0 l/m 0,0 km/h (0 Bft) S-SO 161 0 min 0 min 0,000 mm 1,4 UV-I 247 W/m 14,1 C 16,0 C 0,0 km/h (0 Bft) 97,96 %
16.05.2024 14:06 16,0 C 88 % 0,0 l/m 0,0 km/h (0 Bft) S-SO 161 0 min 0 min 0,000 mm 1,3 UV-I 236 W/m 14,0 C 16,0 C 0,0 km/h (0 Bft) 100,00 %
16.05.2024 14:04 16,0 C 88 % 0,0 l/m 0,0 km/h (0 Bft) S-SO 161 0 min 0 min 0,001 mm 1,2 UV-I 202 W/m 14,0 C 16,0 C 0,0 km/h (0 Bft) 100,00 %
16.05.2024 14:02 16,0 C 87 % 0,0 l/m 0,0 km/h (0 Bft) S-SO 161 0 min 0 min 0,025 mm 1,0 UV-I 168 W/m 13,8 C 16,0 C 0,0 km/h (0 Bft) 100,00 %
16.05.2024 14:00 16,0 C 87 % 0,0 l/m 0,0 km/h (0 Bft) S-SO 161 0 min 0 min 0,000 mm 0,8 UV-I 145 W/m 13,8 C 16,0 C 0,0 km/h (0 Bft) 97,92 %
16.05.2024 13:58 16,1 C 87 % 0,2 l/m 0,0 km/h (0 Bft) S-SO 161 0 min 2 min 0,000 mm 0,8 UV-I 132 W/m 13,9 C 16,1 C 0,0 km/h (0 Bft) 97,96 %
16.05.2024 13:56 16,1 C 87 % 0,0 l/m 0,0 km/h (0 Bft) S-SO 161 0 min 0 min 0,000 mm 0,7 UV-I 118 W/m 13,9 C 16,1 C 0,0 km/h (0 Bft) 93,75 %
16.05.2024 13:54 16,1 C 86 % 0,0 l/m 0,0 km/h (0 Bft) S-SO 161 0 min 0 min 0,000 mm 0,5 UV-I 96 W/m 13,8 C 16,1 C 0,0 km/h (0 Bft) 97,92 %
16.05.2024 13:52 16,1 C 86 % 0,2 l/m 0,0 km/h (0 Bft) S-SO 161 0 min 2 min 0,000 mm 0,1 UV-I 76 W/m 13,8 C 16,1 C 0,0 km/h (0 Bft) 97,96 %
16.05.2024 13:50 16,1 C 86 % 0,0 l/m 0,0 km/h (0 Bft) S-SO 161 0 min 0 min 0,000 mm 0,0 UV-I 62 W/m 13,8 C 16,1 C 1,6 km/h (1 Bft) 100,00 %
16.05.2024 13:48 16,2 C 86 % 0,0 l/m 0,0 km/h (0 Bft) S-SO 161 0 min 0 min 0,000 mm 0,0 UV-I 53 W/m 13,9 C 16,2 C 0,0 km/h (0 Bft) 100,00 %
16.05.2024 13:46 16,2 C 86 % 0,0 l/m 0,0 km/h (0 Bft) S-SO 161 0 min 0 min 0,000 mm 0,0 UV-I 47 W/m 13,9 C 16,2 C 0,0 km/h (0 Bft) 100,00 %
16.05.2024 13:44 16,2 C 85 % 0,2 l/m 0,0 km/h (0 Bft) S-SO 161 0 min 2 min 0,000 mm 0,0 UV-I 43 W/m 13,7 C 16,2 C 0,0 km/h (0 Bft) 100,00 %
16.05.2024 13:42 16,3 C 85 % 0,0 l/m 0,0 km/h (0 Bft) S-SO 161 0 min 0 min 0,000 mm 0,0 UV-I 39 W/m 13,8 C 16,3 C 0,0 km/h (0 Bft) 100,00 %
16.05.2024 13:40 16,4 C 85 % 0,0 l/m 2,2 km/h (1 Bft) S-SO 161 0 min 0 min 0,000 mm 0,0 UV-I 35 W/m 13,9 C 16,4 C 9,7 km/h (2 Bft) 100,00 %
16.05.2024 13:38 16,5 C 85 % 0,0 l/m 0,2 km/h (0 Bft) S-SO 159 0 min 0 min 0,000 mm 0,0 UV-I 33 W/m 14,0 C 16,5 C 1,6 km/h (1 Bft) 100,00 %
16.05.2024 13:36 16,6 C 85 % 0,0 l/m 0,0 km/h (0 Bft) S 190 0 min 0 min 0,000 mm 0,0 UV-I 31 W/m 14,1 C 16,6 C 0,0 km/h (0 Bft) 100,00 %
16.05.2024 13:34 16,6 C 84 % 0,0 l/m 0,4 km/h (0 Bft) S 190 0 min 0 min 0,000 mm 0,0 UV-I 29 W/m 13,9 C 16,6 C 3,2 km/h (1 Bft) 98,08 %
16.05.2024 13:32 16,7 C 84 % 0,2 l/m 0,0 km/h (0 Bft) S-SW 201 0 min 2 min 0,000 mm 0,0 UV-I 28 W/m 14,0 C 16,7 C 0,0 km/h (0 Bft) 100,00 %
16.05.2024 13:30 16,8 C 84 % 0,0 l/m 0,1 km/h (0 Bft) S-SW 201 0 min 0 min 0,000 mm 0,0 UV-I 28 W/m 14,1 C 16,8 C 1,6 km/h (1 Bft) 98,00 %
16.05.2024 13:28 16,8 C 83 % 0,0 l/m 0,7 km/h (0 Bft) S-SW 201 0 min 0 min 0,000 mm 0,0 UV-I 28 W/m 13,9 C 16,8 C 6,4 km/h (2 Bft) 100,00 %
16.05.2024 13:26 16,9 C 83 % 0,2 l/m 0,8 km/h (0 Bft) S-SW 205 0 min 2 min 0,000 mm 0,0 UV-I 30 W/m 14,0 C 16,9 C 4,8 km/h (1 Bft) 97,01 %
16.05.2024 13:24 17,0 C 82 % 0,0 l/m 6,7 km/h (2 Bft) S-SW 208 0 min 0 min 0,000 mm 0,0 UV-I 31 W/m 13,9 C 17,0 C 14,5 km/h (3 Bft) 91,30 %
16.05.2024 13:22 17,1 C 82 % 0,2 l/m 3,6 km/h (1 Bft) S 190 0 min 2 min 0,000 mm 0,0 UV-I 32 W/m 14,0 C 17,1 C 9,7 km/h (2 Bft) 96,36 %
16.05.2024 13:20 17,2 C 81 % 0,2 l/m 4,6 km/h (1 Bft) S 190 0 min 2 min 0,000 mm 0,0 UV-I 29 W/m 13,9 C 17,2 C 9,7 km/h (2 Bft) 97,44 %
16.05.2024 13:18 17,3 C 81 % 0,0 l/m 1,9 km/h (1 Bft) S-SW 205 0 min 0 min 0,000 mm 0,0 UV-I 26 W/m 14,0 C 17,3 C 9,7 km/h (2 Bft) 96,23 %
16.05.2024 13:16 17,4 C 80 % 0,0 l/m 2,1 km/h (1 Bft) W-SW 238 0 min 0 min 0,000 mm 0,0 UV-I 28 W/m 13,9 C 17,4 C 9,7 km/h (2 Bft) 96,30 %
16.05.2024 13:14 17,4 C 79 % 0,2 l/m 3,1 km/h (1 Bft) SW 228 0 min 2 min 0,000 mm 0,0 UV-I 26 W/m 13,7 C 17,4 C 9,7 km/h (2 Bft) 98,08 %
16.05.2024 13:12 17,5 C 79 % 0,0 l/m 2,1 km/h (1 Bft) SW 218 0 min 0 min 0,000 mm 0,0 UV-I 30 W/m 13,8 C 17,5 C 6,4 km/h (2 Bft) 97,22 %
16.05.2024 13:10 17,6 C 79 % 0,0 l/m 1,5 km/h (1 Bft) SW 234 0 min 0 min 0,000 mm 0,0 UV-I 39 W/m 13,9 C 17,6 C 6,4 km/h (2 Bft) 97,44 %
16.05.2024 13:08 17,6 C 78 % 0,0 l/m 5,0 km/h (1 Bft) SW 224 0 min 0 min 0,000 mm 0,0 UV-I 48 W/m 13,7 C 17,6 C 9,7 km/h (2 Bft) 96,61 %
16.05.2024 13:06 17,7 C 78 % 0,0 l/m 3,7 km/h (1 Bft) S-SW 211 0 min 0 min 0,000 mm 0,4 UV-I 57 W/m 13,8 C 17,7 C 9,7 km/h (2 Bft) 100,00 %
16.05.2024 13:04 17,7 C 77 % 0,0 l/m 3,6 km/h (1 Bft) SW 220 0 min 0 min 0,000 mm 0,5 UV-I 70 W/m 13,6 C 17,7 C 8,0 km/h (2 Bft) 100,00 %
16.05.2024 13:02 17,8 C 77 % 0,0 l/m 3,0 km/h (1 Bft) S-SW 206 0 min 0 min 0,203 mm 0,7 UV-I 84 W/m 13,7 C 17,8 C 8,0 km/h (2 Bft) 100,00 %
16.05.2024 13:00 17,9 C 78 % 0,0 l/m 5,4 km/h (2 Bft) S-SW 202 0 min 0 min 0,000 mm 0,7 UV-I 98 W/m 14,0 C 17,8 C 9,7 km/h (2 Bft) 100,00 %
16.05.2024 12:58 17,9 C 78 % 0,0 l/m 2,9 km/h (1 Bft) S-SW 199 0 min 0 min 0,000 mm 0,9 UV-I 118 W/m 14,0 C 17,9 C 9,7 km/h (2 Bft) 100,00 %
16.05.2024 12:56 17,9 C 78 % 0,0 l/m 3,5 km/h (1 Bft) W 273 0 min 0 min 0,000 mm 1,1 UV-I 150 W/m 14,0 C 17,9 C 8,0 km/h (2 Bft) 100,00 %
16.05.2024 12:54 18,0 C 78 % 0,0 l/m 0,3 km/h (0 Bft) SW 215 0 min 0 min 0,000 mm 1,3 UV-I 194 W/m 14,1 C 17,9 C 3,2 km/h (1 Bft) 97,96 %
16.05.2024 12:52 18,0 C 78 % 0,0 l/m 1,0 km/h (0 Bft) S-SW 211 0 min 0 min 0,000 mm 1,6 UV-I 250 W/m 14,1 C 17,9 C 4,8 km/h (1 Bft) 97,50 %
16.05.2024 12:50 18,0 C 78 % 0,0 l/m 1,4 km/h (1 Bft) S-SW 211 0 min 0 min 0,000 mm 2,0 UV-I 305 W/m 14,1 C 18,0 C 6,4 km/h (2 Bft) 98,04 %
16.05.2024 12:48 18,0 C 77 % 0,0 l/m 1,3 km/h (1 Bft) W-SW 244 0 min 0 min 0,000 mm 2,1 UV-I 330 W/m 13,9 C 18,0 C 8,0 km/h (2 Bft) 96,23 %
16.05.2024 12:46 18,1 C 78 % 0,0 l/m 2,3 km/h (1 Bft) SW 232 0 min 0 min 0,000 mm 2,1 UV-I 337 W/m 14,2 C 18,1 C 6,4 km/h (2 Bft) 94,87 %
16.05.2024 12:44 18,1 C 78 % 0,0 l/m 5,8 km/h (2 Bft) SW 221 0 min 0 min 0,000 mm 1,8 UV-I 279 W/m 14,2 C 18,1 C 8,0 km/h (2 Bft) 95,45 %
16.05.2024 12:42 18,1 C 78 % 0,0 l/m 0,0 km/h (0 Bft) W-SW 240 0 min 0 min 0,000 mm 1,7 UV-I 266 W/m 14,2 C 18,1 C 1,6 km/h (1 Bft) 95,35 %
16.05.2024 12:40 18,1 C 76 % 0,0 l/m 0,1 km/h (0 Bft) SW 227 0 min 0 min 0,000 mm 1,9 UV-I 290 W/m 13,8 C 18,1 C 1,6 km/h (1 Bft) 97,92 %
16.05.2024 12:38 18,1 C 77 % 0,0 l/m 0,5 km/h (0 Bft) SW 225 0 min 0 min 0,000 mm 1,9 UV-I 282 W/m 14,0 C 18,1 C 3,2 km/h (1 Bft) 97,92 %
16.05.2024 12:36 18,1 C 77 % 0,0 l/m 3,4 km/h (1 Bft) SW 223 0 min 0 min 0,000 mm 2,1 UV-I 323 W/m 14,0 C 18,1 C 11,3 km/h (2 Bft) 98,04 %
16.05.2024 12:34 18,1 C 78 % 0,0 l/m 3,0 km/h (1 Bft) SW 235 0 min 0 min 0,000 mm 2,5 UV-I 423 W/m 14,2 C 18,1 C 9,7 km/h (2 Bft) 100,00 %
16.05.2024 12:32 18,1 C 78 % 0,0 l/m 5,1 km/h (1 Bft) SW 227 0 min 0 min 0,000 mm 2,5 UV-I 429 W/m 14,2 C 18,1 C 9,7 km/h (2 Bft) 97,92 %
16.05.2024 12:30 18,1 C 77 % 0,0 l/m 1,5 km/h (1 Bft) SW 223 0 min 0 min 0,000 mm 2,1 UV-I 345 W/m 14,0 C 18,1 C 8,0 km/h (2 Bft) 100,00 %
16.05.2024 12:28 18,1 C 77 % 0,0 l/m 2,2 km/h (1 Bft) S-SW 204 0 min 0 min 0,000 mm 1,8 UV-I 276 W/m 14,0 C 18,1 C 6,4 km/h (2 Bft) 100,00 %
16.05.2024 12:26 18,1 C 77 % 0,0 l/m 2,3 km/h (1 Bft) S-SW 193 0 min 0 min 0,000 mm 1,6 UV-I 256 W/m 14,0 C 18,0 C 9,7 km/h (2 Bft) 100,00 %
16.05.2024 12:24 18,1 C 77 % 0,0 l/m 2,9 km/h (1 Bft) SW 229 0 min 0 min 0,000 mm 1,6 UV-I 264 W/m 14,0 C 18,0 C 8,0 km/h (2 Bft) 95,83 %
16.05.2024 12:22 18,0 C 77 % 0,0 l/m 6,6 km/h (2 Bft) S 182 0 min 0 min 0,000 mm 1,8 UV-I 298 W/m 13,9 C 18,0 C 12,9 km/h (3 Bft) 97,96 %
16.05.2024 12:20 18,0 C 77 % 0,0 l/m 5,7 km/h (2 Bft) S-SW 194 0 min 0 min 0,000 mm 2,1 UV-I 332 W/m 13,9 C 17,9 C 12,9 km/h (3 Bft) 95,74 %
16.05.2024 12:18 17,9 C 77 % 0,0 l/m 1,8 km/h (1 Bft) S 184 0 min 0 min 0,000 mm 2,1 UV-I 330 W/m 13,8 C 17,9 C 6,4 km/h (2 Bft) 100,00 %
16.05.2024 12:16 17,9 C 77 % 0,0 l/m 4,9 km/h (1 Bft) S 190 0 min 0 min 0,000 mm 2,1 UV-I 329 W/m 13,8 C 17,9 C 11,3 km/h (2 Bft) 100,00 %
16.05.2024 12:14 17,9 C 78 % 0,0 l/m 6,0 km/h (2 Bft) S-SO 168 0 min 0 min 0,000 mm 2,3 UV-I 353 W/m 14,0 C 17,9 C 11,3 km/h (2 Bft) 100,00 %
16.05.2024 12:12 17,9 C 79 % 0,0 l/m 2,7 km/h (1 Bft) S 183 0 min 0 min 0,000 mm 2,5 UV-I 383 W/m 14,2 C 17,8 C 9,7 km/h (2 Bft) 100,00 %
16.05.2024 12:10 17,8 C 78 % 0,0 l/m 4,1 km/h (1 Bft) S-SW 211 0 min 0 min 0,000 mm 2,7 UV-I 418 W/m 13,9 C 17,8 C 9,7 km/h (2 Bft) 97,96 %
16.05.2024 12:08 17,8 C 78 % 0,0 l/m 4,8 km/h (1 Bft) S-SW 200 0 min 0 min 0,000 mm 2,8 UV-I 443 W/m 13,9 C 17,8 C 11,3 km/h (2 Bft) 97,44 %
16.05.2024 12:06 17,8 C 78 % 0,0 l/m 9,5 km/h (2 Bft) SW 221 2 min 0 min 0,000 mm 3,0 UV-I 490 W/m 13,9 C 17,7 C 16,1 km/h (3 Bft) 98,15 %
16.05.2024 12:04 17,7 C 80 % 0,0 l/m 7,1 km/h (2 Bft) SW 227 2 min 0 min 0,000 mm 3,5 UV-I 567 W/m 14,2 C 17,7 C 11,3 km/h (2 Bft) 95,83 %
16.05.2024 12:02 17,7 C 80 % 0,0 l/m 3,8 km/h (1 Bft) S-SW 209 2 min 0 min 0,254 mm 3,6 UV-I 607 W/m 14,2 C 17,6 C 12,9 km/h (3 Bft) 100,00 %
16.05.2024 12:00 17,6 C 79 % 0,0 l/m 5,9 km/h (2 Bft) W-SW 254 2 min 0 min 0,000 mm 3,1 UV-I 559 W/m 13,9 C 17,6 C 12,9 km/h (3 Bft) 96,61 %
16.05.2024 11:58 17,6 C 79 % 0,0 l/m 5,5 km/h (2 Bft) S-SW 196 0 min 0 min 0,000 mm 2,2 UV-I 385 W/m 13,9 C 17,6 C 11,3 km/h (2 Bft) 97,62 %
16.05.2024 11:56 17,7 C 78 % 0,0 l/m 6,4 km/h (2 Bft) SW 222 0 min 0 min 0,000 mm 1,7 UV-I 282 W/m 13,8 C 17,7 C 11,3 km/h (2 Bft) 95,83 %
16.05.2024 11:54 17,7 C 77 % 0,0 l/m 4,0 km/h (1 Bft) SW 225 0 min 0 min 0,000 mm 1,5 UV-I 238 W/m 13,6 C 17,7 C 11,3 km/h (2 Bft) 95,24 %
16.05.2024 11:52 17,8 C 77 % 0,0 l/m 4,0 km/h (1 Bft) S-SW 199 0 min 0 min 0,000 mm 1,3 UV-I 203 W/m 13,7 C 17,8 C 12,9 km/h (3 Bft) 96,30 %
16.05.2024 11:50 17,9 C 77 % 0,0 l/m 8,1 km/h (2 Bft) SW 234 0 min 0 min 0,000 mm 1,3 UV-I 182 W/m 13,8 C 17,9 C 16,1 km/h (3 Bft) 97,22 %
16.05.2024 11:48 18,1 C 77 % 0,0 l/m 5,0 km/h (1 Bft) W 259 0 min 0 min 0,000 mm 1,3 UV-I 193 W/m 14,0 C 18,1 C 12,9 km/h (3 Bft) 98,31 %
16.05.2024 11:46 18,2 C 77 % 0,0 l/m 2,5 km/h (1 Bft) S-SW 192 0 min 0 min 0,000 mm 1,4 UV-I 211 W/m 14,1 C 18,2 C 11,3 km/h (2 Bft) 100,00 %
16.05.2024 11:44 18,3 C 76 % 0,0 l/m 5,0 km/h (1 Bft) SW 222 0 min 0 min 0,000 mm 1,5 UV-I 238 W/m 14,0 C 18,3 C 12,9 km/h (3 Bft) 100,00 %
16.05.2024 11:42 18,4 C 75 % 0,0 l/m 7,5 km/h (2 Bft) W 269 0 min 0 min 0,000 mm 1,7 UV-I 273 W/m 13,9 C 18,4 C 12,9 km/h (3 Bft) 98,04 %
16.05.2024 11:40 18,5 C 75 % 0,0 l/m 9,9 km/h (2 Bft) W-SW 242 0 min 0 min 0,000 mm 1,7 UV-I 272 W/m 14,0 C 18,5 C 16,1 km/h (3 Bft) 100,00 %
16.05.2024 11:39 18,6 C 74 % 0,0 l/m 7,5 km/h (2 Bft) SW 233 0 min 0 min 0,000 mm 1,5 UV-I 260 W/m 13,9 C 18,6 C 16,1 km/h (3 Bft) 100,00 %
16.05.2024 11:36 18,8 C 73 % 0,0 l/m 7,1 km/h (2 Bft) S-SW 211 0 min 0 min 0,000 mm 1,1 UV-I 171 W/m 13,9 C 18,8 C 14,5 km/h (3 Bft) 100,00 %
16.05.2024 11:34 18,9 C 72 % 0,0 l/m 9,0 km/h (2 Bft) S 186 0 min 0 min 0,000 mm 1,0 UV-I 142 W/m 13,7 C 18,9 C 17,7 km/h (3 Bft) 100,00 %
16.05.2024 11:32 19,0 C 70 % 0,0 l/m 11,5 km/h (2 Bft) S-SW 198 0 min 0 min 0,000 mm 1,2 UV-I 187 W/m 13,4 C 19,0 C 17,7 km/h (3 Bft) 98,25 %
16.05.2024 11:30 19,1 C 70 % 0,0 l/m 7,5 km/h (2 Bft) S 189 0 min 0 min 0,000 mm 1,8 UV-I 262 W/m 13,5 C 19,1 C 22,5 km/h (4 Bft) 96,43 %
16.05.2024 11:28 19,1 C 69 % 0,0 l/m 4,6 km/h (1 Bft) S-SO 165 0 min 0 min 0,000 mm 2,3 UV-I 372 W/m 13,3 C 19,1 C 11,3 km/h (2 Bft) 100,00 %
16.05.2024 11:26 19,1 C 70 % 0,0 l/m 11,3 km/h (2 Bft) S-SO 163 0 min 0 min 0,000 mm 2,8 UV-I 424 W/m 13,5 C 19,1 C 17,7 km/h (3 Bft) 97,67 %
16.05.2024 11:24 19,1 C 70 % 0,0 l/m 12,3 km/h (2 Bft) S 184 2 min 0 min 0,000 mm 2,9 UV-I 444 W/m 13,5 C 19,1 C 22,5 km/h (4 Bft) 94,64 %
16.05.2024 11:22 19,1 C 72 % 0,0 l/m 8,4 km/h (2 Bft) S 175 2 min 0 min 0,000 mm 3,3 UV-I 530 W/m 13,9 C 18,9 C 19,3 km/h (3 Bft) 97,56 %
16.05.2024 11:20 18,9 C 72 % 0,0 l/m 6,3 km/h (2 Bft) SO 144 2 min 0 min 0,000 mm 3,6 UV-I 740 W/m 13,7 C 18,8 C 11,3 km/h (2 Bft) 95,35 %
16.05.2024 11:18 18,8 C 73 % 0,0 l/m 6,6 km/h (2 Bft) S-SO 151 2 min 0 min 0,000 mm 3,8 UV-I 726 W/m 13,9 C 18,7 C 17,7 km/h (3 Bft) 98,28 %
16.05.2024 11:16 18,7 C 73 % 0,0 l/m 6,2 km/h (2 Bft) O-SO 121 2 min 0 min 0,000 mm 3,3 UV-I 623 W/m 13,8 C 18,6 C 14,5 km/h (3 Bft) 97,44 %
16.05.2024 11:14 18,6 C 74 % 0,0 l/m 2,1 km/h (1 Bft) SO 145 2 min 0 min 0,000 mm 3,2 UV-I 570 W/m 13,9 C 18,4 C 8,0 km/h (2 Bft) 100,00 %
16.05.2024 11:12 18,4 C 74 % 0,0 l/m 7,5 km/h (2 Bft) SO 138 2 min 0 min 0,000 mm 3,4 UV-I 679 W/m 13,7 C 18,3 C 16,1 km/h (3 Bft) 99,56 %
16.05.2024 11:10 18,3 C 73 % 0,0 l/m 0,0 km/h (0 Bft) O-SO 111 2 min 0 min 0,000 mm 3,6 UV-I 782 W/m 13,4 C 18,2 C 16,1 km/h (3 Bft) 100,00 %
16.05.2024 11:08 18,2 C 72 % 0,0 l/m 3,2 km/h (1 Bft) O-SO 112 2 min 0 min 0,000 mm 3,3 UV-I 628 W/m 13,1 C 18,1 C 16,1 km/h (3 Bft) 100,00 %
16.05.2024 11:06 18,1 C 73 % 0,0 l/m 6,4 km/h (2 Bft) SO 126 1 min 0 min 0,000 mm 3,6 UV-I 731 W/m 13,2 C 18,1 C 16,1 km/h (3 Bft) 100,00 %
16.05.2024 11:05 18,1 C 73 % 0,0 l/m 1,6 km/h (1 Bft) S-SO 161 3 min 0 min 0,000 mm 3,6 UV-I 714 W/m 13,2 C 17,9 C 16,1 km/h (3 Bft) 100,00 %
16.05.2024 11:02 17,9 C 73 % 0,0 l/m 7,8 km/h (2 Bft) S-SO 167 2 min 0 min 0,203 mm 2,8 UV-I 525 W/m 13,0 C 17,9 C 17,7 km/h (3 Bft) 100,00 %
16.05.2024 11:00 17,9 C 73 % 0,0 l/m 9,4 km/h (2 Bft) S-SO 155 2 min 0 min 0,000 mm 2,1 UV-I 499 W/m 13,0 C 17,8 C 14,5 km/h (3 Bft) 97,96 %
16.05.2024 10:58 17,8 C 74 % 0,0 l/m 14,2 km/h (3 Bft) S 181 2 min 0 min 0,000 mm 2,3 UV-I 467 W/m 13,1 C 17,8 C 22,5 km/h (4 Bft) 93,75 %
16.05.2024 10:56 17,8 C 77 % 0,0 l/m 8,4 km/h (2 Bft) S 173 2 min 0 min 0,000 mm 2,7 UV-I 516 W/m 13,7 C 17,7 C 16,1 km/h (3 Bft) 95,92 %
16.05.2024 10:54 17,7 C 76 % 0,0 l/m 4,5 km/h (1 Bft) S-SO 156 2 min 0 min 0,000 mm 2,7 UV-I 551 W/m 13,4 C 17,6 C 12,9 km/h (3 Bft) 95,83 %
16.05.2024 10:52 17,6 C 76 % 0,0 l/m 14,8 km/h (3 Bft) S-SO 155 2 min 0 min 0,000 mm 2,7 UV-I 574 W/m 13,3 C 17,6 C 24,1 km/h (4 Bft) 93,75 %
16.05.2024 10:50 17,6 C 77 % 0,0 l/m 7,3 km/h (2 Bft) S-SO 167 2 min 0 min 0,000 mm 2,6 UV-I 522 W/m 13,5 C 17,4 C 19,3 km/h (3 Bft) 94,87 %
16.05.2024 10:48 17,4 C 76 % 0,0 l/m 5,0 km/h (1 Bft) S 179 2 min 0 min 0,000 mm 2,4 UV-I 412 W/m 13,1 C 17,4 C 8,0 km/h (2 Bft) 98,00 %
16.05.2024 10:46 17,4 C 76 % 0,0 l/m 9,5 km/h (2 Bft) S-SO 157 0 min 0 min 0,000 mm 2,1 UV-I 391 W/m 13,1 C 17,4 C 19,3 km/h (3 Bft) 97,92 %
16.05.2024 10:44 17,4 C 78 % 0,0 l/m 2,6 km/h (1 Bft) S-SO 163 0 min 0 min 0,000 mm 2,1 UV-I 370 W/m 13,5 C 17,3 C 8,0 km/h (2 Bft) 95,00 %
16.05.2024 10:42 17,3 C 77 % 0,0 l/m 5,5 km/h (2 Bft) S 178 0 min 0 min 0,000 mm 1,8 UV-I 341 W/m 13,2 C 17,3 C 11,3 km/h (2 Bft) 98,04 %
16.05.2024 10:40 17,3 C 78 % 0,0 l/m 7,6 km/h (2 Bft) S-SW 196 2 min 0 min 0,000 mm 2,0 UV-I 414 W/m 13,4 C 17,2 C 17,7 km/h (3 Bft) 97,96 %
16.05.2024 10:38 17,2 C 78 % 0,0 l/m 5,6 km/h (2 Bft) S 173 0 min 0 min 0,000 mm 1,9 UV-I 378 W/m 13,3 C 17,2 C 12,9 km/h (3 Bft) 100,00 %
16.05.2024 10:36 17,2 C 80 % 0,0 l/m 4,2 km/h (1 Bft) S 171 0 min 0 min 0,000 mm 1,9 UV-I 369 W/m 13,7 C 17,1 C 14,5 km/h (3 Bft) 100,00 %
16.05.2024 10:34 17,1 C 80 % 0,0 l/m 1,5 km/h (1 Bft) SO 130 0 min 0 min 0,000 mm 1,9 UV-I 354 W/m 13,6 C 17,1 C 8,0 km/h (2 Bft) 100,00 %
16.05.2024 10:32 17,1 C 79 % 0,0 l/m 3,2 km/h (1 Bft) SO 142 0 min 0 min 0,000 mm 1,8 UV-I 339 W/m 13,4 C 17,1 C 8,0 km/h (2 Bft) 100,00 %
16.05.2024 10:30 17,1 C 79 % 0,0 l/m 0,1 km/h (0 Bft) S-SO 155 0 min 0 min 0,000 mm 1,7 UV-I 327 W/m 13,4 C 17,1 C 1,6 km/h (1 Bft) 100,00 %
16.05.2024 10:29 17,1 C 79 % 0,0 l/m 2,1 km/h (1 Bft) S-SO 155 0 min 0 min 0,000 mm 1,5 UV-I 276 W/m 13,4 C 17,0 C 8,0 km/h (2 Bft) 100,00 %
16.05.2024 10:26 17,0 C 79 % 0,0 l/m 0,0 km/h (0 Bft) S-SW 194 0 min 0 min 0,000 mm 1,5 UV-I 264 W/m 13,3 C 16,9 C 0,0 km/h (0 Bft) 97,96 %
16.05.2024 10:24 16,9 C 78 % 0,0 l/m 0,0 km/h (0 Bft) S-SW 194 0 min 0 min 0,000 mm 1,5 UV-I 276 W/m 13,0 C 16,9 C 0,0 km/h (0 Bft) 97,83 %
16.05.2024 10:22 16,9 C 79 % 0,0 l/m 0,0 km/h (0 Bft) S-SW 194 0 min 0 min 0,000 mm 1,5 UV-I 273 W/m 13,2 C 16,9 C 0,0 km/h (0 Bft) 96,15 %
16.05.2024 10:20 16,9 C 78 % 0,0 l/m 0,0 km/h (0 Bft) S-SW 194 0 min 0 min 0,000 mm 1,5 UV-I 264 W/m 13,0 C 16,9 C 0,0 km/h (0 Bft) 95,56 %
16.05.2024 10:18 16,9 C 78 % 0,0 l/m 0,0 km/h (0 Bft) S-SW 192 0 min 0 min 0,000 mm 1,4 UV-I 250 W/m 13,0 C 16,9 C 1,6 km/h (1 Bft) 100,00 %
16.05.2024 10:16 16,9 C 78 % 0,0 l/m 0,0 km/h (0 Bft) S 190 0 min 0 min 0,000 mm 1,4 UV-I 245 W/m 13,0 C 16,9 C 1,6 km/h (1 Bft) 98,04 %
16.05.2024 10:14 16,9 C 78 % 0,0 l/m 2,3 km/h (1 Bft) S 190 0 min 0 min 0,000 mm 1,4 UV-I 241 W/m 13,0 C 16,9 C 4,8 km/h (1 Bft) 100,00 %
16.05.2024 10:12 16,9 C 79 % 0,0 l/m 0,7 km/h (0 Bft) S 188 0 min 0 min 0,000 mm 1,3 UV-I 241 W/m 13,2 C 16,9 C 4,8 km/h (1 Bft) 100,00 %
16.05.2024 10:10 16,9 C 79 % 0,0 l/m 0,6 km/h (0 Bft) S 187 0 min 0 min 0,000 mm 1,3 UV-I 238 W/m 13,2 C 16,9 C 4,8 km/h (1 Bft) 100,00 %
16.05.2024 10:08 16,9 C 79 % 0,0 l/m 0,0 km/h (0 Bft) S 186 0 min 0 min 0,000 mm 1,3 UV-I 232 W/m 13,2 C 16,9 C 0,0 km/h (0 Bft) 100,00 %
16.05.2024 10:06 16,9 C 79 % 0,0 l/m 0,0 km/h (0 Bft) S 186 0 min 0 min 0,000 mm 1,2 UV-I 225 W/m 13,2 C 16,9 C 0,0 km/h (0 Bft) 100,00 %
16.05.2024 10:04 16,9 C 79 % 0,0 l/m 0,0 km/h (0 Bft) S 185 0 min 0 min 0,000 mm 1,2 UV-I 214 W/m 13,2 C 16,9 C 0,0 km/h (0 Bft) 100,00 %
16.05.2024 10:02 16,9 C 79 % 0,0 l/m 1,4 km/h (1 Bft) S 184 0 min 0 min 0,127 mm 1,1 UV-I 200 W/m 13,2 C 16,9 C 4,8 km/h (1 Bft) 97,50 %
16.05.2024 10:00 16,9 C 79 % 0,0 l/m 0,0 km/h (0 Bft) S 184 0 min 0 min 0,000 mm 0,9 UV-I 182 W/m 13,2 C 16,9 C 0,0 km/h (0 Bft) 100,00 %
16.05.2024 09:58 16,9 C 79 % 0,0 l/m 0,0 km/h (0 Bft) S 184 0 min 0 min 0,000 mm 0,9 UV-I 173 W/m 13,2 C 16,9 C 1,6 km/h (1 Bft) 100,00 %
16.05.2024 09:56 16,9 C 78 % 0,0 l/m 0,0 km/h (0 Bft) S 184 0 min 0 min 0,000 mm 0,9 UV-I 178 W/m 13,0 C 16,8 C 0,0 km/h (0 Bft) 95,24 %
16.05.2024 09:54 16,8 C 78 % 0,0 l/m 0,1 km/h (0 Bft) S 184 0 min 0 min 0,000 mm 0,9 UV-I 184 W/m 12,9 C 16,8 C 1,6 km/h (1 Bft) 94,83 %
16.05.2024 09:52 16,8 C 78 % 0,0 l/m 0,4 km/h (0 Bft) S 184 0 min 0 min 0,000 mm 1,0 UV-I 186 W/m 12,9 C 16,8 C 3,2 km/h (1 Bft) 97,62 %
16.05.2024 09:50 16,8 C 78 % 0,0 l/m 0,0 km/h (0 Bft) S 184 0 min 0 min 0,000 mm 1,0 UV-I 185 W/m 12,9 C 16,8 C 0,0 km/h (0 Bft) 100,00 %
16.05.2024 09:48 16,8 C 78 % 0,0 l/m 0,0 km/h (0 Bft) S 183 0 min 0 min 0,000 mm 1,0 UV-I 188 W/m 12,9 C 16,7 C 0,0 km/h (0 Bft) 98,25 %
16.05.2024 09:46 16,7 C 78 % 0,0 l/m 0,0 km/h (0 Bft) S 183 0 min 0 min 0,000 mm 1,0 UV-I 196 W/m 12,8 C 16,7 C 0,0 km/h (0 Bft) 100,00 %
16.05.2024 09:44 16,7 C 78 % 0,0 l/m 1,2 km/h (1 Bft) S 182 0 min 0 min 0,000 mm 1,1 UV-I 211 W/m 12,8 C 16,7 C 4,8 km/h (1 Bft) 97,56 %
16.05.2024 09:42 16,7 C 79 % 0,0 l/m 0,1 km/h (0 Bft) S 177 0 min 0 min 0,000 mm 1,2 UV-I 229 W/m 13,0 C 16,6 C 1,6 km/h (1 Bft) 96,15 %
16.05.2024 09:40 16,6 C 79 % 0,0 l/m 0,0 km/h (0 Bft) S 176 0 min 0 min 0,000 mm 1,2 UV-I 244 W/m 12,9 C 16,6 C 0,0 km/h (0 Bft) 97,92 %
16.05.2024 09:38 16,6 C 79 % 0,0 l/m 2,0 km/h (1 Bft) S 176 0 min 0 min 0,000 mm 1,3 UV-I 256 W/m 12,9 C 16,6 C 9,7 km/h (2 Bft) 97,92 %
16.05.2024 09:36 16,6 C 79 % 0,0 l/m 0,7 km/h (0 Bft) S 188 0 min 0 min 0,000 mm 1,4 UV-I 272 W/m 12,9 C 16,5 C 6,4 km/h (2 Bft) 97,30 %
16.05.2024 09:34 16,5 C 80 % 0,0 l/m 4,2 km/h (1 Bft) S 188 2 min 0 min 0,000 mm 1,4 UV-I 332 W/m 13,0 C 16,4 C 8,0 km/h (2 Bft) 97,96 %
16.05.2024 09:32 16,4 C 80 % 0,0 l/m 3,4 km/h (1 Bft) S-SW 193 0 min 0 min 0,000 mm 1,4 UV-I 308 W/m 12,9 C 16,4 C 8,0 km/h (2 Bft) 97,92 %
16.05.2024 09:30 16,4 C 80 % 0,0 l/m 2,4 km/h (1 Bft) S-SW 203 2 min 0 min 0,000 mm 1,5 UV-I 340 W/m 12,9 C 16,3 C 8,0 km/h (2 Bft) 97,96 %
16.05.2024 09:28 16,3 C 80 % 0,0 l/m 2,9 km/h (1 Bft) S-SO 161 2 min 0 min 0,000 mm 1,5 UV-I 350 W/m 12,8 C 16,2 C 8,0 km/h (2 Bft) 95,92 %
16.05.2024 09:26 16,2 C 80 % 0,0 l/m 6,0 km/h (2 Bft) S-SO 160 2 min 0 min 0,000 mm 1,5 UV-I 319 W/m 12,7 C 16,2 C 9,7 km/h (2 Bft) 93,62 %
16.05.2024 09:24 16,2 C 81 % 0,0 l/m 5,6 km/h (2 Bft) S-SO 161 0 min 0 min 0,000 mm 1,3 UV-I 259 W/m 12,9 C 16,1 C 11,3 km/h (2 Bft) 95,92 %
16.05.2024 09:22 16,1 C 82 % 0,0 l/m 2,1 km/h (1 Bft) SO 145 0 min 0 min 0,000 mm 1,3 UV-I 235 W/m 13,0 C 16,1 C 6,4 km/h (2 Bft) 95,00 %
16.05.2024 09:20 16,1 C 83 % 0,0 l/m 0,4 km/h (0 Bft) SO 137 0 min 0 min 0,000 mm 1,2 UV-I 223 W/m 13,2 C 16,0 C 3,2 km/h (1 Bft) 98,08 %
16.05.2024 09:18 16,0 C 84 % 0,0 l/m 0,0 km/h (0 Bft) SO 136 0 min 0 min 0,000 mm 1,2 UV-I 223 W/m 13,3 C 15,9 C 0,0 km/h (0 Bft) 93,88 %
16.05.2024 09:16 15,9 C 85 % 0,0 l/m 0,9 km/h (0 Bft) SO 136 0 min 0 min 0,000 mm 1,2 UV-I 228 W/m 13,4 C 15,8 C 4,8 km/h (1 Bft) 100,00 %
16.05.2024 09:14 15,8 C 86 % 0,0 l/m 0,0 km/h (0 Bft) SO 134 0 min 0 min 0,000 mm 1,2 UV-I 235 W/m 13,5 C 15,8 C 1,6 km/h (1 Bft) 100,00 %
16.05.2024 09:12 15,8 C 86 % 0,0 l/m 0,1 km/h (0 Bft) SO 134 0 min 0 min 0,000 mm 1,2 UV-I 254 W/m 13,5 C 15,7 C 3,2 km/h (1 Bft) 98,73 %
16.05.2024 09:10 15,7 C 86 % 0,0 l/m 0,0 km/h (0 Bft) SO 134 0 min 0 min 0,000 mm 1,3 UV-I 250 W/m 13,4 C 15,6 C 3,2 km/h (1 Bft) 100,00 %
16.05.2024 09:08 15,6 C 87 % 0,0 l/m 0,0 km/h (0 Bft) SO 134 0 min 0 min 0,000 mm 1,2 UV-I 253 W/m 13,4 C 15,4 C 3,2 km/h (1 Bft) 100,00 %
16.05.2024 09:06 15,4 C 86 % 0,0 l/m 0,0 km/h (0 Bft) SO 134 0 min 0 min 0,000 mm 1,2 UV-I 267 W/m 13,1 C 15,4 C 1,6 km/h (1 Bft) 100,00 %
16.05.2024 09:05 15,4 C 86 % 0,0 l/m 0,0 km/h (0 Bft) SO 134 0 min 0 min 0,000 mm 1,2 UV-I 260 W/m 13,1 C 15,3 C 1,6 km/h (1 Bft) 100,00 %
16.05.2024 09:02 15,3 C 86 % 0,0 l/m 0,0 km/h (0 Bft) SO 137 0 min 0 min 0,102 mm 1,2 UV-I 265 W/m 13,0 C 15,2 C 1,6 km/h (1 Bft) 100,00 %
16.05.2024 09:00 15,2 C 86 % 0,0 l/m 0,0 km/h (0 Bft) SO 137 0 min 0 min 0,000 mm 1,1 UV-I 238 W/m 12,9 C 15,1 C 1,6 km/h (1 Bft) 100,00 %
16.05.2024 08:58 15,1 C 86 % 0,0 l/m 0,0 km/h (0 Bft) S 184 0 min 0 min 0,000 mm 1,1 UV-I 214 W/m 12,8 C 15,0 C 1,6 km/h (1 Bft) 100,00 %
16.05.2024 08:56 15,0 C 86 % 0,0 l/m 0,5 km/h (0 Bft) S 184 0 min 0 min 0,000 mm 1,0 UV-I 201 W/m 12,7 C 14,9 C 3,2 km/h (1 Bft) 100,00 %
16.05.2024 08:54 14,9 C 86 % 0,0 l/m 0,1 km/h (0 Bft) S 184 0 min 0 min 0,000 mm 1,0 UV-I 196 W/m 12,6 C 14,8 C 1,6 km/h (1 Bft) 98,18 %
16.05.2024 08:52 14,8 C 86 % 0,0 l/m 0,1 km/h (0 Bft) S-SW 198 0 min 0 min 0,000 mm 1,0 UV-I 195 W/m 12,5 C 14,8 C 1,6 km/h (1 Bft) 97,44 %
16.05.2024 08:50 14,8 C 86 % 0,0 l/m 0,0 km/h (0 Bft) SW 226 0 min 0 min 0,000 mm 1,0 UV-I 195 W/m 12,5 C 14,7 C 0,0 km/h (0 Bft) 97,78 %
16.05.2024 08:48 14,7 C 86 % 0,0 l/m 0,0 km/h (0 Bft) SW 226 0 min 0 min 0,000 mm 1,0 UV-I 195 W/m 12,4 C 14,6 C 0,0 km/h (0 Bft) 98,11 %
16.05.2024 08:46 14,6 C 87 % 0,0 l/m 0,0 km/h (0 Bft) SW 226 0 min 0 min 0,000 mm 1,0 UV-I 197 W/m 12,5 C 14,6 C 0,0 km/h (0 Bft) 97,67 %
16.05.2024 08:44 14,6 C 87 % 0,0 l/m 0,0 km/h (0 Bft) SW 226 0 min 0 min 0,000 mm 1,0 UV-I 208 W/m 12,5 C 14,5 C 0,0 km/h (0 Bft) 100,00 %
16.05.2024 08:42 14,5 C 87 % 0,0 l/m 0,0 km/h (0 Bft) SW 226 0 min 0 min 0,000 mm 1,0 UV-I 216 W/m 12,4 C 14,4 C 0,0 km/h (0 Bft) 100,00 %
16.05.2024 08:40 14,4 C 88 % 0,0 l/m 0,0 km/h (0 Bft) SW 226 2 min 0 min 0,000 mm 1,0 UV-I 268 W/m 12,4 C 14,4 C 0,0 km/h (0 Bft) 100,00 %
16.05.2024 08:38 14,4 C 88 % 0,0 l/m 0,0 km/h (0 Bft) SW 225 2 min 0 min 0,000 mm 1,0 UV-I 313 W/m 12,4 C 14,3 C 0,0 km/h (0 Bft) 98,31 %
16.05.2024 08:36 14,3 C 88 % 0,0 l/m 0,0 km/h (0 Bft) SW 225 2 min 0 min 0,000 mm 1,0 UV-I 291 W/m 12,3 C 14,2 C 0,0 km/h (0 Bft) 100,00 %
16.05.2024 08:34 14,2 C 88 % 0,0 l/m 0,5 km/h (0 Bft) SW 225 0 min 0 min 0,000 mm 0,9 UV-I 200 W/m 12,2 C 14,1 C 3,2 km/h (1 Bft) 97,56 %
16.05.2024 08:32 14,1 C 88 % 0,0 l/m 3,0 km/h (1 Bft) SW 223 0 min 0 min 0,000 mm 0,8 UV-I 230 W/m 12,1 C 14,1 C 8,0 km/h (2 Bft) 97,73 %
16.05.2024 08:30 14,1 C 88 % 0,0 l/m 0,0 km/h (0 Bft) O 81 0 min 0 min 0,000 mm 0,8 UV-I 214 W/m 12,1 C 14,0 C 0,0 km/h (0 Bft) 97,78 %
16.05.2024 08:28 14,0 C 88 % 0,0 l/m 0,0 km/h (0 Bft) O 81 0 min 0 min 0,000 mm 0,8 UV-I 193 W/m 12,0 C 13,9 C 0,0 km/h (0 Bft) 96,61 %
16.05.2024 08:26 13,9 C 88 % 0,0 l/m 0,0 km/h (0 Bft) O 81 0 min 0 min 0,000 mm 0,8 UV-I 201 W/m 11,9 C 13,9 C 0,0 km/h (0 Bft) 97,44 %
16.05.2024 08:24 13,9 C 88 % 0,0 l/m 0,0 km/h (0 Bft) O 81 0 min 0 min 0,000 mm 0,8 UV-I 196 W/m 11,9 C 13,8 C 0,0 km/h (0 Bft) 97,67 %
16.05.2024 08:22 13,8 C 88 % 0,0 l/m 0,0 km/h (0 Bft) O 81 0 min 0 min 0,000 mm 0,7 UV-I 187 W/m 11,8 C 13,8 C 0,0 km/h (0 Bft) 96,49 %
16.05.2024 08:20 13,8 C 88 % 0,0 l/m 0,0 km/h (0 Bft) O 81 0 min 0 min 0,000 mm 0,7 UV-I 179 W/m 11,8 C 13,7 C 0,0 km/h (0 Bft) 96,15 %
16.05.2024 08:19 13,7 C 88 % 0,0 l/m 0,0 km/h (0 Bft) O 81 0 min 0 min 0,000 mm 0,6 UV-I 167 W/m 11,7 C 13,7 C 0,0 km/h (0 Bft) 93,85 %
16.05.2024 08:16 13,7 C 88 % 0,0 l/m 0,5 km/h (0 Bft) O 81 0 min 0 min 0,000 mm 0,6 UV-I 154 W/m 11,7 C 13,6 C 3,2 km/h (1 Bft) 95,00 %
16.05.2024 08:14 13,7 C 88 % 0,0 l/m 0,0 km/h (0 Bft) O-NO 68 0 min 0 min 0,000 mm 0,6 UV-I 148 W/m 11,7 C 13,6 C 0,0 km/h (0 Bft) 95,83 %
16.05.2024 08:12 13,6 C 88 % 0,0 l/m 0,0 km/h (0 Bft) O-NO 68 0 min 0 min 0,000 mm 0,5 UV-I 142 W/m 11,6 C 13,6 C 0,0 km/h (0 Bft) 100,00 %
16.05.2024 08:10 13,6 C 88 % 0,0 l/m 0,2 km/h (0 Bft) O-NO 68 0 min 0 min 0,000 mm 0,5 UV-I 133 W/m 11,6 C 13,6 C 3,2 km/h (1 Bft) 100,00 %
16.05.2024 08:08 13,6 C 88 % 0,0 l/m 0,0 km/h (0 Bft) O-NO 67 0 min 0 min 0,000 mm 0,5 UV-I 125 W/m 11,6 C 13,5 C 0,0 km/h (0 Bft) 100,00 %
16.05.2024 08:06 13,5 C 88 % 0,0 l/m 0,0 km/h (0 Bft) O-NO 67 0 min 0 min 0,000 mm 0,1 UV-I 120 W/m 11,6 C 13,4 C 0,0 km/h (0 Bft) 100,00 %
16.05.2024 08:04 13,4 C 88 % 0,0 l/m 1,1 km/h (1 Bft) O-NO 65 0 min 0 min 0,000 mm 0,0 UV-I 116 W/m 11,5 C 13,4 C 6,4 km/h (2 Bft) 100,00 %
16.05.2024 08:02 13,4 C 88 % 0,0 l/m 0,0 km/h (0 Bft) O-NO 65 0 min 0 min 0,051 mm 0,0 UV-I 113 W/m 11,5 C 13,4 C 1,6 km/h (1 Bft) 100,00 %
16.05.2024 08:00 13,4 C 88 % 0,0 l/m 0,3 km/h (0 Bft) O 88 0 min 0 min 0,000 mm 0,0 UV-I 107 W/m 11,5 C 13,3 C 3,2 km/h (1 Bft) 100,00 %
16.05.2024 07:58 13,3 C 88 % 0,0 l/m 0,0 km/h (0 Bft) O 91 0 min 0 min 0,000 mm 0,0 UV-I 105 W/m 11,4 C 13,3 C 0,0 km/h (0 Bft) 100,00 %
16.05.2024 07:56 13,3 C 88 % 0,0 l/m 0,1 km/h (0 Bft) O-NO 57 0 min 0 min 0,000 mm 0,0 UV-I 106 W/m 11,4 C 13,3 C 1,6 km/h (1 Bft) 97,96 %
16.05.2024 07:54 13,3 C 88 % 0,0 l/m 0,0 km/h (0 Bft) O 85 0 min 0 min 0,000 mm 0,0 UV-I 107 W/m 11,4 C 13,3 C 0,0 km/h (0 Bft) 100,00 %
16.05.2024 07:52 13,3 C 88 % 0,0 l/m 0,2 km/h (0 Bft) O 85 0 min 0 min 0,000 mm 0,0 UV-I 103 W/m 11,4 C 13,3 C 3,2 km/h (1 Bft) 100,00 %
16.05.2024 07:50 13,3 C 88 % 0,0 l/m 1,7 km/h (1 Bft) O 86 0 min 0 min 0,000 mm 0,0 UV-I 96 W/m 11,4 C 13,2 C 6,4 km/h (2 Bft) 100,00 %
16.05.2024 07:48 13,2 C 89 % 0,0 l/m 1,8 km/h (1 Bft) NO 56 0 min 0 min 0,000 mm 0,0 UV-I 90 W/m 11,4 C 13,2 C 4,8 km/h (1 Bft) 98,04 %
16.05.2024 07:46 13,2 C 89 % 0,0 l/m 2,1 km/h (1 Bft) O 79 0 min 0 min 0,000 mm 0,0 UV-I 90 W/m 11,4 C 13,2 C 9,7 km/h (2 Bft) 97,30 %
16.05.2024 07:44 13,2 C 89 % 0,0 l/m 1,3 km/h (1 Bft) O 82 0 min 0 min 0,000 mm 0,0 UV-I 92 W/m 11,4 C 13,2 C 4,8 km/h (1 Bft) 98,08 %
16.05.2024 07:42 13,2 C 90 % 0,0 l/m 2,4 km/h (1 Bft) O-NO 64 0 min 0 min 0,000 mm 0,0 UV-I 94 W/m 11,6 C 13,1 C 6,4 km/h (2 Bft) 98,11 %
16.05.2024 07:40 13,1 C 89 % 0,0 l/m 0,7 km/h (0 Bft) O-NO 78 0 min 0 min 0,000 mm 0,0 UV-I 97 W/m 11,3 C 13,1 C 4,8 km/h (1 Bft) 97,50 %
16.05.2024 07:38 13,1 C 89 % 0,0 l/m 0,3 km/h (0 Bft) O-NO 75 0 min 0 min 0,000 mm 0,0 UV-I 101 W/m 11,3 C 13,0 C 3,2 km/h (1 Bft) 97,92 %
16.05.2024 07:36 13,1 C 89 % 0,0 l/m 0,1 km/h (0 Bft) O-NO 75 0 min 0 min 0,000 mm 0,0 UV-I 101 W/m 11,3 C 13,0 C 1,6 km/h (1 Bft) 100,00 %
16.05.2024 07:34 13,0 C 89 % 0,0 l/m 0,0 km/h (0 Bft) NO 55 0 min 0 min 0,000 mm 0,0 UV-I 98 W/m 11,2 C 12,9 C 0,0 km/h (0 Bft) 97,44 %
16.05.2024 07:32 12,9 C 89 % 0,0 l/m 0,6 km/h (0 Bft) O-NO 64 0 min 0 min 0,000 mm 0,0 UV-I 94 W/m 11,1 C 12,9 C 6,4 km/h (2 Bft) 97,92 %
16.05.2024 07:30 12,9 C 89 % 0,0 l/m 0,4 km/h (0 Bft) NO 42 0 min 0 min 0,000 mm 0,0 UV-I 90 W/m 11,1 C 12,9 C 3,2 km/h (1 Bft) 98,11 %
16.05.2024 07:28 12,9 C 89 % 0,0 l/m 0,4 km/h (0 Bft) O-NO 58 0 min 0 min 0,000 mm 0,0 UV-I 86 W/m 11,1 C 12,9 C 6,4 km/h (2 Bft) 98,08 %
16.05.2024 07:26 12,9 C 89 % 0,0 l/m 1,0 km/h (0 Bft) NO 45 0 min 0 min 0,000 mm 0,0 UV-I 88 W/m 11,1 C 12,8 C 4,8 km/h (1 Bft) 100,00 %
16.05.2024 07:24 12,8 C 89 % 0,0 l/m 0,6 km/h (0 Bft) NO 34 0 min 0 min 0,000 mm 0,0 UV-I 97 W/m 11,0 C 12,8 C 3,2 km/h (1 Bft) 95,12 %
16.05.2024 07:22 12,8 C 89 % 0,0 l/m 1,3 km/h (1 Bft) NO 48 0 min 0 min 0,000 mm 0,0 UV-I 105 W/m 11,0 C 12,8 C 6,4 km/h (2 Bft) 97,87 %
16.05.2024 07:20 12,8 C 89 % 0,0 l/m 1,4 km/h (1 Bft) O 81 0 min 0 min 0,000 mm 0,0 UV-I 109 W/m 11,0 C 12,8 C 8,0 km/h (2 Bft) 95,92 %
16.05.2024 07:18 12,8 C 89 % 0,0 l/m 0,1 km/h (0 Bft) NO 49 0 min 0 min 0,000 mm 0,0 UV-I 108 W/m 11,0 C 12,7 C 1,6 km/h (1 Bft) 100,00 %
16.05.2024 07:17 12,8 C 89 % 0,0 l/m 2,7 km/h (1 Bft) O-NO 60 0 min 0 min 0,000 mm 0,0 UV-I 103 W/m 11,0 C 12,7 C 12,9 km/h (3 Bft) 97,18 %
16.05.2024 07:14 12,7 C 89 % 0,0 l/m 1,8 km/h (1 Bft) O 80 0 min 0 min 0,000 mm 0,0 UV-I 93 W/m 10,9 C 12,7 C 6,4 km/h (2 Bft) 94,74 %
16.05.2024 07:12 12,7 C 89 % 0,0 l/m 1,1 km/h (1 Bft) O-NO 67 0 min 0 min 0,000 mm 0,0 UV-I 78 W/m 10,9 C 12,7 C 4,8 km/h (1 Bft) 95,24 %
16.05.2024 07:10 12,7 C 90 % 0,0 l/m 4,0 km/h (1 Bft) O-NO 66 0 min 0 min 0,000 mm 0,0 UV-I 69 W/m 11,1 C 12,7 C 12,9 km/h (3 Bft) 95,83 %
16.05.2024 07:08 12,7 C 89 % 0,0 l/m 1,8 km/h (1 Bft) O 79 0 min 0 min 0,000 mm 0,0 UV-I 64 W/m 10,9 C 12,7 C 6,4 km/h (2 Bft) 95,83 %
16.05.2024 07:06 12,7 C 90 % 0,0 l/m 3,1 km/h (1 Bft) O-NO 78 0 min 0 min 0,000 mm 0,0 UV-I 62 W/m 11,1 C 12,7 C 8,0 km/h (2 Bft) 95,00 %
16.05.2024 07:04 12,7 C 90 % 0,0 l/m 2,9 km/h (1 Bft) O 79 0 min 0 min 0,000 mm 0,0 UV-I 59 W/m 11,1 C 12,7 C 8,0 km/h (2 Bft) 96,43 %
16.05.2024 07:02 12,8 C 90 % 0,0 l/m 2,7 km/h (1 Bft) O-NO 74 0 min 0 min 0,025 mm 0,0 UV-I 56 W/m 11,2 C 12,8 C 6,4 km/h (2 Bft) 100,00 %
16.05.2024 07:00 12,8 C 90 % 0,0 l/m 5,3 km/h (1 Bft) O-NO 76 0 min 0 min 0,000 mm 0,0 UV-I 56 W/m 11,2 C 12,8 C 11,3 km/h (2 Bft) 100,00 %
16.05.2024 06:58 12,8 C 90 % 0,0 l/m 3,4 km/h (1 Bft) O-NO 67 0 min 0 min 0,000 mm 0,0 UV-I 49 W/m 11,2 C 12,8 C 8,0 km/h (2 Bft) 100,00 %
16.05.2024 06:56 12,8 C 90 % 0,0 l/m 1,4 km/h (1 Bft) O-NO 76 0 min 0 min 0,000 mm 0,0 UV-I 46 W/m 11,2 C 12,8 C 4,8 km/h (1 Bft) 100,00 %
16.05.2024 06:54 12,8 C 90 % 0,0 l/m 1,5 km/h (1 Bft) O 86 0 min 0 min 0,000 mm 0,0 UV-I 46 W/m 11,2 C 12,8 C 6,4 km/h (2 Bft) 100,00 %
16.05.2024 06:52 12,8 C 90 % 0,0 l/m 1,2 km/h (1 Bft) O 84 0 min 0 min 0,000 mm 0,0 UV-I 47 W/m 11,2 C 12,8 C 4,8 km/h (1 Bft) 100,00 %
16.05.2024 06:50 12,9 C 90 % 0,0 l/m 0,9 km/h (0 Bft) O-NO 63 0 min 0 min 0,000 mm 0,0 UV-I 51 W/m 11,3 C 12,8 C 4,8 km/h (1 Bft) 100,00 %
16.05.2024 06:48 12,9 C 90 % 0,0 l/m 1,4 km/h (1 Bft) NO 54 0 min 0 min 0,000 mm 0,0 UV-I 55 W/m 11,3 C 12,9 C 4,8 km/h (1 Bft) 100,00 %
16.05.2024 06:46 12,9 C 91 % 0,0 l/m 1,7 km/h (1 Bft) NO 51 0 min 0 min 0,000 mm 0,0 UV-I 60 W/m 11,5 C 12,9 C 8,0 km/h (2 Bft) 100,00 %
16.05.2024 06:44 12,9 C 91 % 0,0 l/m 1,1 km/h (1 Bft) O-NO 61 0 min 0 min 0,000 mm 0,0 UV-I 60 W/m 11,5 C 12,9 C 3,2 km/h (1 Bft) 97,92 %
16.05.2024 06:42 13,0 C 91 % 0,0 l/m 0,9 km/h (0 Bft) O-NO 76 0 min 0 min 0,000 mm 0,0 UV-I 53 W/m 11,6 C 13,0 C 4,8 km/h (1 Bft) 100,00 %
16.05.2024 06:40 13,0 C 91 % 0,0 l/m 0,4 km/h (0 Bft) O-NO 76 0 min 0 min 0,000 mm 0,0 UV-I 45 W/m 11,6 C 13,0 C 3,2 km/h (1 Bft) 97,22 %
16.05.2024 06:38 13,1 C 91 % 0,0 l/m 0,3 km/h (0 Bft) O-NO 71 0 min 0 min 0,000 mm 0,0 UV-I 38 W/m 11,7 C 13,1 C 3,2 km/h (1 Bft) 100,00 %
16.05.2024 06:36 13,1 C 91 % 0,0 l/m 1,7 km/h (1 Bft) O-NO 65 0 min 0 min 0,000 mm 0,0 UV-I 34 W/m 11,7 C 13,1 C 4,8 km/h (1 Bft) 97,92 %
16.05.2024 06:34 13,1 C 91 % 0,0 l/m 0,2 km/h (0 Bft) NO 42 0 min 0 min 0,000 mm 0,0 UV-I 31 W/m 11,7 C 13,1 C 1,6 km/h (1 Bft) 97,96 %
16.05.2024 06:32 13,1 C 91 % 0,0 l/m 0,0 km/h (0 Bft) N-NO 24 0 min 0 min 0,000 mm 0,0 UV-I 27 W/m 11,7 C 13,1 C 0,0 km/h (0 Bft) 97,92 %
16.05.2024 06:30 13,1 C 91 % 0,0 l/m 0,1 km/h (0 Bft) N-NO 23 0 min 0 min 0,000 mm 0,0 UV-I 25 W/m 11,7 C 13,1 C 1,6 km/h (1 Bft) 97,87 %
16.05.2024 06:28 13,2 C 91 % 0,0 l/m 0,0 km/h (0 Bft) N-NO 23 0 min 0 min 0,000 mm 0,0 UV-I 23 W/m 11,8 C 13,2 C 0,0 km/h (0 Bft) 95,83 %
16.05.2024 06:26 13,2 C 91 % 0,0 l/m 1,5 km/h (1 Bft) N-NO 23 0 min 0 min 0,000 mm 0,0 UV-I 21 W/m 11,8 C 13,2 C 4,8 km/h (1 Bft) 100,00 %
16.05.2024 06:24 13,2 C 91 % 0,0 l/m 0,0 km/h (0 Bft) N-NO 30 0 min 0 min 0,000 mm 0,0 UV-I 20 W/m 11,8 C 13,2 C 1,6 km/h (1 Bft) 100,00 %
16.05.2024 06:22 13,2 C 90 % 0,0 l/m 0,4 km/h (0 Bft) N-NO 30 0 min 0 min 0,000 mm 0,0 UV-I 19 W/m 11,6 C 13,2 C 4,8 km/h (1 Bft) 100,00 %
16.05.2024 06:20 13,2 C 90 % 0,0 l/m 5,1 km/h (1 Bft) N-NO 29 0 min 0 min 0,000 mm 0,0 UV-I 19 W/m 11,6 C 13,2 C 6,4 km/h (2 Bft) 100,00 %
16.05.2024 06:18 13,3 C 90 % 0,0 l/m 2,9 km/h (1 Bft) NO 34 0 min 0 min 0,000 mm 0,0 UV-I 17 W/m 11,7 C 13,3 C 6,4 km/h (2 Bft) 100,00 %
16.05.2024 06:16 13,3 C 90 % 0,0 l/m 0,0 km/h (0 Bft) N-NO 30 0 min 0 min 0,000 mm 0,0 UV-I 15 W/m 11,7 C 13,3 C 0,0 km/h (0 Bft) 100,00 %
16.05.2024 06:14 13,3 C 90 % 0,0 l/m 0,0 km/h (0 Bft) N-NO 30 0 min 0 min 0,000 mm 0,0 UV-I 13 W/m 11,7 C 13,3 C 0,0 km/h (0 Bft) 100,00 %
16.05.2024 06:12 13,3 C 90 % 0,0 l/m 0,0 km/h (0 Bft) N-NO 30 0 min 0 min 0,000 mm 0,0 UV-I 12 W/m 11,7 C 13,3 C 0,0 km/h (0 Bft) 95,83 %
16.05.2024 06:10 13,3 C 89 % 0,0 l/m 0,0 km/h (0 Bft) N-NO 30 0 min 0 min 0,000 mm 0,0 UV-I 11 W/m 11,5 C 13,3 C 0,0 km/h (0 Bft) 91,67 %
16.05.2024 06:09 13,3 C 89 % 0,2 l/m 0,0 km/h (0 Bft) N-NO 30 0 min 3 min 0,000 mm 0,0 UV-I 9 W/m 11,5 C 13,3 C 0,0 km/h (0 Bft) 96,15 %
16.05.2024 06:06 13,4 C 89 % 0,0 l/m 0,0 km/h (0 Bft) N-NO 30 0 min 0 min 0,000 mm 0,0 UV-I 7 W/m 11,6 C 13,4 C 0,0 km/h (0 Bft) 97,96 %
16.05.2024 06:04 13,4 C 89 % 0,0 l/m 0,0 km/h (0 Bft) N-NO 30 0 min 0 min 0,000 mm 0,0 UV-I 5 W/m 11,6 C 13,4 C 0,0 km/h (0 Bft) 97,92 %
16.05.2024 06:02 13,4 C 89 % 0,0 l/m 0,0 km/h (0 Bft) N-NO 30 0 min 0 min 0,000 mm 0,0 UV-I 3 W/m 11,6 C 13,4 C 0,0 km/h (0 Bft) 97,30 %
16.05.2024 06:00 13,4 C 89 % 0,0 l/m 0,0 km/h (0 Bft) N-NO 30 0 min 0 min 0,000 mm 0,0 UV-I 0 W/m 11,6 C 13,4 C 0,0 km/h (0 Bft) 93,88 %
16.05.2024 05:58 13,4 C 89 % 0,0 l/m 1,1 km/h (1 Bft) N-NO 30 0 min 0 min 0,000 mm 0,0 UV-I 0 W/m 11,6 C 13,4 C 4,8 km/h (1 Bft) 92,59 %
16.05.2024 05:56 13,5 C 89 % 0,0 l/m 0,6 km/h (0 Bft) N-NO 32 0 min 0 min 0,000 mm 0,0 UV-I 0 W/m 11,7 C 13,5 C 3,2 km/h (1 Bft) 92,50 %
16.05.2024 05:54 13,5 C 89 % 0,0 l/m 0,0 km/h (0 Bft) O-SO 104 0 min 0 min 0,000 mm 0,0 UV-I 2 W/m 11,7 C 13,5 C 1,6 km/h (1 Bft) 92,16 %
16.05.2024 05:52 13,6 C 89 % 0,0 l/m 0,0 km/h (0 Bft) SO 133 0 min 0 min 0,000 mm 0,0 UV-I 5 W/m 11,8 C 13,6 C 0,0 km/h (0 Bft) 100,00 %
16.05.2024 05:50 13,6 C 88 % 0,0 l/m 0,0 km/h (0 Bft) SO 133 0 min 0 min 0,000 mm 0,0 UV-I 7 W/m 11,6 C 13,6 C 0,0 km/h (0 Bft) 100,00 %
16.05.2024 05:48 13,6 C 88 % 0,0 l/m 0,0 km/h (0 Bft) SO 134 0 min 0 min 0,000 mm 0,0 UV-I 7 W/m 11,6 C 13,6 C 0,0 km/h (0 Bft) 100,00 %
16.05.2024 05:46 13,6 C 88 % 0,0 l/m 0,1 km/h (0 Bft) SO 134 0 min 0 min 0,000 mm 0,0 UV-I 7 W/m 11,6 C 13,6 C 1,6 km/h (1 Bft) 100,00 %
16.05.2024 05:44 13,7 C 88 % 0,0 l/m 0,0 km/h (0 Bft) SO 134 0 min 0 min 0,000 mm 0,0 UV-I 7 W/m 11,7 C 13,7 C 0,0 km/h (0 Bft) 93,75 %
16.05.2024 05:42 13,7 C 88 % 0,0 l/m 0,0 km/h (0 Bft) SO 134 0 min 0 min 0,000 mm 0,0 UV-I 7 W/m 11,7 C 13,7 C 0,0 km/h (0 Bft) 97,44 %
16.05.2024 05:40 13,7 C 87 % 0,0 l/m 0,0 km/h (0 Bft) SO 134 0 min 0 min 0,000 mm 0,0 UV-I 7 W/m 11,6 C 13,7 C 0,0 km/h (0 Bft) 100,00 %
16.05.2024 05:38 13,8 C 87 % 0,0 l/m 0,0 km/h (0 Bft) SO 134 0 min 0 min 0,000 mm 0,0 UV-I 5 W/m 11,7 C 13,8 C 0,0 km/h (0 Bft) 98,08 %
16.05.2024 05:36 13,8 C 87 % 0,2 l/m 0,0 km/h (0 Bft) SO 134 0 min 2 min 0,000 mm 0,0 UV-I 5 W/m 11,7 C 13,8 C 0,0 km/h (0 Bft) 100,00 %
16.05.2024 05:34 13,8 C 87 % 0,0 l/m 0,0 km/h (0 Bft) SO 134 0 min 0 min 0,000 mm 0,0 UV-I 2 W/m 11,7 C 13,8 C 0,0 km/h (0 Bft) 100,00 %
16.05.2024 05:32 13,8 C 87 % 0,0 l/m 0,0 km/h (0 Bft) SO 134 0 min 0 min 0,000 mm 0,0 UV-I 0 W/m 11,7 C 13,8 C 0,0 km/h (0 Bft) 100,00 %
16.05.2024 05:30 13,9 C 87 % 0,0 l/m 0,0 km/h (0 Bft) SO 134 0 min 0 min 0,000 mm 0,0 UV-I 0 W/m 11,8 C 13,9 C 0,0 km/h (0 Bft) 100,00 %
16.05.2024 05:28 13,9 C 86 % 0,0 l/m 0,0 km/h (0 Bft) SO 134 0 min 0 min 0,000 mm 0,0 UV-I 0 W/m 11,6 C 13,9 C 0,0 km/h (0 Bft) 100,00 %
16.05.2024 05:26 13,9 C 86 % 0,0 l/m 0,0 km/h (0 Bft) SO 134 0 min 0 min 0,000 mm 0,0 UV-I 0 W/m 11,6 C 13,9 C 0,0 km/h (0 Bft) 98,08 %
16.05.2024 05:24 14,0 C 86 % 0,0 l/m 0,0 km/h (0 Bft) SO 134 0 min 0 min 0,000 mm 0,0 UV-I 0 W/m 11,7 C 13,9 C 0,0 km/h (0 Bft) 97,96 %
16.05.2024 05:22 14,0 C 86 % 0,2 l/m 0,0 km/h (0 Bft) SO 134 0 min 2 min 0,000 mm 0,0 UV-I 0 W/m 11,7 C 14,0 C 0,0 km/h (0 Bft) 97,87 %
16.05.2024 05:20 14,1 C 86 % 0,0 l/m 0,0 km/h (0 Bft) SO 134 0 min 0 min 0,000 mm 0,0 UV-I 0 W/m 11,8 C 14,1 C 0,0 km/h (0 Bft) 97,30 %
16.05.2024 05:18 14,1 C 86 % 0,0 l/m 0,0 km/h (0 Bft) SO 134 0 min 0 min 0,000 mm 0,0 UV-I 0 W/m 11,8 C 14,1 C 0,0 km/h (0 Bft) 97,87 %
16.05.2024 05:16 14,1 C 86 % 0,0 l/m 0,0 km/h (0 Bft) SO 134 0 min 0 min 0,000 mm 0,0 UV-I 0 W/m 11,8 C 14,1 C 0,0 km/h (0 Bft) 100,00 %
16.05.2024 05:14 14,2 C 85 % 0,0 l/m 0,0 km/h (0 Bft) SO 134 0 min 0 min 0,000 mm 0,0 UV-I 0 W/m 11,7 C 14,2 C 0,0 km/h (0 Bft) 100,00 %
16.05.2024 05:12 14,2 C 85 % 0,0 l/m 0,0 km/h (0 Bft) SO 134 0 min 0 min 0,000 mm 0,0 UV-I 0 W/m 11,7 C 14,2 C 0,0 km/h (0 Bft) 100,00 %
16.05.2024 05:10 14,2 C 85 % 0,0 l/m 0,0 km/h (0 Bft) SO 134 0 min 0 min 0,000 mm 0,0 UV-I 0 W/m 11,7 C 14,2 C 0,0 km/h (0 Bft) 100,00 %
16.05.2024 05:08 14,2 C 84 % 0,2 l/m 0,0 km/h (0 Bft) SO 134 0 min 2 min 0,000 mm 0,0 UV-I 0 W/m 11,5 C 14,2 C 0,0 km/h (0 Bft) 100,00 %
16.05.2024 05:06 14,2 C 84 % 0,0 l/m 0,0 km/h (0 Bft) SO 134 0 min 0 min 0,000 mm 0,0 UV-I 0 W/m 11,5 C 14,2 C 0,0 km/h (0 Bft) 100,00 %
16.05.2024 05:04 14,3 C 84 % 0,0 l/m 0,0 km/h (0 Bft) SO 134 0 min 0 min 0,000 mm 0,0 UV-I 0 W/m 11,6 C 14,3 C 0,0 km/h (0 Bft) 100,00 %
16.05.2024 05:02 14,3 C 83 % 0,0 l/m 0,0 km/h (0 Bft) SO 134 0 min 0 min 0,025 mm 0,0 UV-I 0 W/m 11,5 C 14,3 C 0,0 km/h (0 Bft) 100,00 %
16.05.2024 05:00 14,3 C 83 % 0,0 l/m 0,0 km/h (0 Bft) SO 134 0 min 0 min 0,000 mm 0,0 UV-I 0 W/m 11,5 C 14,3 C 0,0 km/h (0 Bft) 100,00 %
16.05.2024 04:58 14,3 C 83 % 0,0 l/m 0,0 km/h (0 Bft) SO 134 0 min 0 min 0,000 mm 0,0 UV-I 0 W/m 11,5 C 14,3 C 0,0 km/h (0 Bft) 100,00 %
16.05.2024 04:56 14,3 C 83 % 0,0 l/m 0,0 km/h (0 Bft) SO 134 0 min 0 min 0,000 mm 0,0 UV-I 0 W/m 11,5 C 14,3 C 0,0 km/h (0 Bft) 100,00 %
16.05.2024 04:54 14,4 C 82 % 0,2 l/m 0,0 km/h (0 Bft) SO 134 0 min 2 min 0,000 mm 0,0 UV-I 0 W/m 11,4 C 14,4 C 0,0 km/h (0 Bft) 97,96 %
16.05.2024 04:52 14,4 C 82 % 0,0 l/m 0,0 km/h (0 Bft) SO 134 0 min 0 min 0,000 mm 0,0 UV-I 0 W/m 11,4 C 14,4 C 0,0 km/h (0 Bft) 97,96 %
16.05.2024 04:50 14,4 C 82 % 0,0 l/m 0,0 km/h (0 Bft) SO 134 0 min 0 min 0,000 mm 0,0 UV-I 0 W/m 11,4 C 14,4 C 0,0 km/h (0 Bft) 93,88 %
16.05.2024 04:48 14,4 C 81 % 0,0 l/m 0,0 km/h (0 Bft) SO 134 0 min 0 min 0,000 mm 0,0 UV-I 0 W/m 11,2 C 14,4 C 0,0 km/h (0 Bft) 97,22 %
16.05.2024 04:46 14,4 C 80 % 0,0 l/m 0,0 km/h (0 Bft) SO 134 0 min 0 min 0,000 mm 0,0 UV-I 0 W/m 11,0 C 14,4 C 0,0 km/h (0 Bft) 95,92 %
16.05.2024 04:44 14,5 C 80 % 0,0 l/m 0,0 km/h (0 Bft) SO 130 0 min 0 min 0,000 mm 0,0 UV-I 0 W/m 11,1 C 14,5 C 0,0 km/h (0 Bft) 93,75 %
16.05.2024 04:42 14,5 C 79 % 0,0 l/m 0,0 km/h (0 Bft) SO 130 0 min 0 min 0,000 mm 0,0 UV-I 0 W/m 10,9 C 14,5 C 0,0 km/h (0 Bft) 98,08 %
16.05.2024 04:40 14,6 C 79 % 0,0 l/m 0,0 km/h (0 Bft) SO 130 0 min 0 min 0,000 mm 0,0 UV-I 0 W/m 11,0 C 14,6 C 0,0 km/h (0 Bft) 100,00 %
16.05.2024 04:38 14,6 C 79 % 0,0 l/m 2,2 km/h (1 Bft) SO 130 0 min 0 min 0,000 mm 0,0 UV-I 0 W/m 11,0 C 14,6 C 4,8 km/h (1 Bft) 100,00 %
16.05.2024 04:36 14,7 C 79 % 0,0 l/m 3,2 km/h (1 Bft) O-SO 116 0 min 0 min 0,000 mm 0,0 UV-I 0 W/m 11,1 C 14,6 C 3,2 km/h (1 Bft) 100,00 %
16.05.2024 04:34 14,7 C 79 % 0,0 l/m 3,2 km/h (1 Bft) O-SO 116 0 min 0 min 0,000 mm 0,0 UV-I 0 W/m 11,1 C 14,7 C 3,2 km/h (1 Bft) 100,00 %
16.05.2024 04:32 14,7 C 79 % 0,0 l/m 3,2 km/h (1 Bft) O-SO 116 0 min 0 min 0,000 mm 0,0 UV-I 0 W/m 11,1 C 14,7 C 3,2 km/h (1 Bft) 97,92 %
16.05.2024 04:30 14,8 C 79 % 0,0 l/m 1,8 km/h (1 Bft) O-SO 116 0 min 0 min 0,000 mm 0,0 UV-I 0 W/m 11,2 C 14,8 C 3,2 km/h (1 Bft) 100,00 %
16.05.2024 04:28 14,8 C 79 % 0,0 l/m 1,5 km/h (1 Bft) O 96 0 min 0 min 0,000 mm 0,0 UV-I 0 W/m 11,2 C 14,8 C 6,4 km/h (2 Bft) 100,00 %
16.05.2024 04:26 14,8 C 79 % 0,0 l/m 0,1 km/h (0 Bft) O 93 0 min 0 min 0,000 mm 0,0 UV-I 0 W/m 11,2 C 14,8 C 1,6 km/h (1 Bft) 100,00 %
16.05.2024 04:24 14,9 C 79 % 0,0 l/m 0,0 km/h (0 Bft) O 101 0 min 0 min 0,000 mm 0,0 UV-I 0 W/m 11,3 C 14,9 C 0,0 km/h (0 Bft) 100,00 %
16.05.2024 04:22 14,9 C 78 % 0,0 l/m 0,0 km/h (0 Bft) SO 139 0 min 0 min 0,000 mm 0,0 UV-I 0 W/m 11,1 C 14,9 C 0,0 km/h (0 Bft) 100,00 %
16.05.2024 04:20 14,9 C 77 % 0,0 l/m 0,0 km/h (0 Bft) SO 139 0 min 0 min 0,000 mm 0,0 UV-I 0 W/m 10,9 C 14,9 C 0,0 km/h (0 Bft) 97,30 %
16.05.2024 04:18 15,0 C 77 % 0,0 l/m 0,0 km/h (0 Bft) SO 139 0 min 0 min 0,000 mm 0,0 UV-I 0 W/m 11,0 C 15,0 C 0,0 km/h (0 Bft) 100,00 %
16.05.2024 04:16 15,1 C 77 % 0,0 l/m 1,0 km/h (0 Bft) SO 139 0 min 0 min 0,000 mm 0,0 UV-I 0 W/m 11,1 C 15,1 C 4,8 km/h (1 Bft) 98,15 %
16.05.2024 04:14 15,1 C 77 % 0,0 l/m 2,4 km/h (1 Bft) SO 124 0 min 0 min 0,000 mm 0,0 UV-I 0 W/m 11,1 C 15,1 C 14,5 km/h (3 Bft) 97,50 %
16.05.2024 04:12 15,2 C 77 % 0,2 l/m 2,1 km/h (1 Bft) O 92 0 min 2 min 0,000 mm 0,0 UV-I 0 W/m 11,2 C 15,2 C 8,0 km/h (2 Bft) 98,08 %
16.05.2024 04:10 15,2 C 77 % 0,0 l/m 0,6 km/h (0 Bft) O-SO 123 0 min 0 min 0,000 mm 0,0 UV-I 0 W/m 11,2 C 15,2 C 3,2 km/h (1 Bft) 94,00 %
16.05.2024 04:08 15,3 C 76 % 0,0 l/m 1,6 km/h (1 Bft) O-SO 118 0 min 0 min 0,000 mm 0,0 UV-I 0 W/m 11,1 C 15,3 C 9,7 km/h (2 Bft) 97,30 %
16.05.2024 04:06 15,3 C 76 % 0,0 l/m 2,5 km/h (1 Bft) O-SO 105 0 min 0 min 0,000 mm 0,0 UV-I 0 W/m 11,1 C 15,3 C 9,7 km/h (2 Bft) 100,00 %
16.05.2024 04:04 15,4 C 76 % 0,0 l/m 2,4 km/h (1 Bft) O-SO 107 0 min 0 min 0,000 mm 0,0 UV-I 0 W/m 11,2 C 15,4 C 16,1 km/h (3 Bft) 97,67 %
16.05.2024 04:02 15,4 C 75 % 0,2 l/m 4,4 km/h (1 Bft) O 95 0 min 2 min 0,000 mm 0,0 UV-I 0 W/m 11,0 C 15,4 C 9,7 km/h (2 Bft) 100,00 %
16.05.2024 04:00 15,5 C 75 % 0,0 l/m 1,0 km/h (0 Bft) O 93 0 min 0 min 0,026 mm 0,0 UV-I 0 W/m 11,1 C 15,5 C 9,7 km/h (2 Bft) 100,00 %
16.05.2024 03:59 15,5 C 75 % 0,0 l/m 0,1 km/h (0 Bft) O-SO 108 0 min 0 min 0,000 mm 0,0 UV-I 0 W/m 11,1 C 15,5 C 3,2 km/h (1 Bft) 98,36 %
16.05.2024 03:56 15,6 C 75 % 0,0 l/m 0,0 km/h (0 Bft) O-SO 118 0 min 0 min 0,000 mm 0,0 UV-I 0 W/m 11,2 C 15,6 C 1,6 km/h (1 Bft) 98,08 %
16.05.2024 03:54 15,6 C 75 % 0,0 l/m 0,0 km/h (0 Bft) O-SO 118 0 min 0 min 0,000 mm 0,0 UV-I 0 W/m 11,2 C 15,6 C 0,0 km/h (0 Bft) 100,00 %
16.05.2024 03:52 15,6 C 74 % 0,0 l/m 0,0 km/h (0 Bft) O-SO 119 0 min 0 min 0,000 mm 0,0 UV-I 0 W/m 11,0 C 15,6 C 1,6 km/h (1 Bft) 97,96 %
16.05.2024 03:50 15,6 C 74 % 0,0 l/m 0,1 km/h (0 Bft) O-SO 118 0 min 0 min 0,000 mm 0,0 UV-I 0 W/m 11,0 C 15,6 C 1,6 km/h (1 Bft) 95,83 %
16.05.2024 03:48 15,7 C 74 % 0,0 l/m 0,3 km/h (0 Bft) O 90 0 min 0 min 0,000 mm 0,0 UV-I 0 W/m 11,1 C 15,7 C 3,2 km/h (1 Bft) 97,30 %
16.05.2024 03:46 15,7 C 74 % 0,0 l/m 0,2 km/h (0 Bft) O 92 0 min 0 min 0,000 mm 0,0 UV-I 0 W/m 11,1 C 15,7 C 3,2 km/h (1 Bft) 97,87 %
16.05.2024 03:44 15,7 C 74 % 0,0 l/m 1,4 km/h (1 Bft) O-NO 75 0 min 0 min 0,000 mm 0,0 UV-I 0 W/m 11,1 C 15,7 C 6,4 km/h (2 Bft) 95,92 %
16.05.2024 03:42 15,7 C 73 % 0,0 l/m 0,8 km/h (0 Bft) O-NO 76 0 min 0 min 0,000 mm 0,0 UV-I 0 W/m 10,9 C 15,7 C 4,8 km/h (1 Bft) 95,92 %
16.05.2024 03:40 15,7 C 73 % 0,0 l/m 1,0 km/h (0 Bft) O 79 0 min 0 min 0,000 mm 0,0 UV-I 0 W/m 10,9 C 15,7 C 6,4 km/h (2 Bft) 95,92 %
16.05.2024 03:38 15,8 C 73 % 0,0 l/m 1,8 km/h (1 Bft) O 90 0 min 0 min 0,000 mm 0,0 UV-I 0 W/m 11,0 C 15,8 C 11,3 km/h (2 Bft) 93,88 %
16.05.2024 03:36 15,8 C 73 % 0,0 l/m 0,9 km/h (0 Bft) O-NO 74 0 min 0 min 0,000 mm 0,0 UV-I 0 W/m 11,0 C 15,8 C 6,4 km/h (2 Bft) 93,62 %
16.05.2024 03:34 15,8 C 72 % 0,2 l/m 0,6 km/h (0 Bft) O 101 0 min 2 min 0,000 mm 0,0 UV-I 0 W/m 10,8 C 15,8 C 4,8 km/h (1 Bft) 100,00 %
16.05.2024 03:32 15,8 C 71 % 0,0 l/m 0,6 km/h (0 Bft) O 82 0 min 0 min 0,000 mm 0,0 UV-I 0 W/m 10,6 C 15,8 C 6,4 km/h (2 Bft) 95,92 %
16.05.2024 03:30 15,8 C 71 % 0,0 l/m 0,1 km/h (0 Bft) O 92 0 min 0 min 0,000 mm 0,0 UV-I 0 W/m 10,6 C 15,8 C 3,2 km/h (1 Bft) 100,00 %
16.05.2024 03:28 15,8 C 70 % 0,0 l/m 0,1 km/h (0 Bft) O 85 0 min 0 min 0,000 mm 0,0 UV-I 0 W/m 10,3 C 15,7 C 1,6 km/h (1 Bft) 97,96 %
16.05.2024 03:26 15,7 C 70 % 0,0 l/m 0,0 km/h (0 Bft) O 86 0 min 0 min 0,000 mm 0,0 UV-I 0 W/m 10,2 C 15,7 C 0,0 km/h (0 Bft) 100,00 %
16.05.2024 03:24 15,7 C 69 % 0,0 l/m 0,7 km/h (0 Bft) O 84 0 min 0 min 0,000 mm 0,0 UV-I 0 W/m 10,0 C 15,7 C 6,4 km/h (2 Bft) 100,00 %
16.05.2024 03:22 15,7 C 69 % 0,0 l/m 0,0 km/h (0 Bft) O 84 0 min 0 min 0,000 mm 0,0 UV-I 0 W/m 10,0 C 15,7 C 0,0 km/h (0 Bft) 100,00 %
16.05.2024 03:20 15,7 C 69 % 0,0 l/m 0,5 km/h (0 Bft) O 83 0 min 0 min 0,000 mm 0,0 UV-I 0 W/m 10,0 C 15,7 C 3,2 km/h (1 Bft) 100,00 %
16.05.2024 03:18 15,7 C 69 % 0,0 l/m 1,8 km/h (1 Bft) O-SO 108 0 min 0 min 0,000 mm 0,0 UV-I 0 W/m 10,0 C 15,7 C 6,4 km/h (2 Bft) 100,00 %
16.05.2024 03:16 15,7 C 69 % 0,0 l/m 0,0 km/h (0 Bft) O 92 0 min 0 min 0,000 mm 0,0 UV-I 0 W/m 10,0 C 15,7 C 0,0 km/h (0 Bft) 100,00 %
16.05.2024 03:14 15,7 C 70 % 0,0 l/m 0,5 km/h (0 Bft) O 92 0 min 0 min 0,000 mm 0,0 UV-I 0 W/m 10,2 C 15,7 C 3,2 km/h (1 Bft) 100,00 %
16.05.2024 03:12 15,7 C 70 % 0,0 l/m 0,3 km/h (0 Bft) O-SO 106 0 min 0 min 0,000 mm 0,0 UV-I 0 W/m 10,2 C 15,7 C 3,2 km/h (1 Bft) 95,83 %
16.05.2024 03:10 15,7 C 70 % 0,0 l/m 0,7 km/h (0 Bft) O-SO 115 0 min 0 min 0,000 mm 0,0 UV-I 0 W/m 10,2 C 15,7 C 4,8 km/h (1 Bft) 97,44 %
16.05.2024 03:08 15,7 C 70 % 0,0 l/m 0,0 km/h (0 Bft) O 91 0 min 0 min 0,000 mm 0,0 UV-I 0 W/m 10,2 C 15,7 C 0,0 km/h (0 Bft) 97,96 %
16.05.2024 03:06 15,7 C 69 % 0,0 l/m 0,2 km/h (0 Bft) O 88 0 min 0 min 0,000 mm 0,0 UV-I 0 W/m 10,0 C 15,7 C 3,2 km/h (1 Bft) 95,92 %
16.05.2024 03:04 15,7 C 70 % 0,0 l/m 1,4 km/h (1 Bft) O 91 0 min 0 min 0,000 mm 0,0 UV-I 0 W/m 10,2 C 15,6 C 9,7 km/h (2 Bft) 97,96 %
16.05.2024 03:02 15,6 C 70 % 0,0 l/m 0,3 km/h (0 Bft) O-NO 71 0 min 0 min 0,000 mm 0,0 UV-I 0 W/m 10,1 C 15,6 C 3,2 km/h (1 Bft) 100,00 %
16.05.2024 03:00 15,6 C 70 % 0,0 l/m 2,6 km/h (1 Bft) O-SO 103 0 min 0 min 0,025 mm 0,0 UV-I 0 W/m 10,1 C 15,6 C 9,7 km/h (2 Bft) 100,00 %
16.05.2024 02:58 15,7 C 71 % 0,0 l/m 2,9 km/h (1 Bft) O-SO 116 0 min 0 min 0,000 mm 0,0 UV-I 0 W/m 10,5 C 15,7 C 12,9 km/h (3 Bft) 100,00 %
16.05.2024 02:56 15,7 C 71 % 0,0 l/m 0,5 km/h (0 Bft) O 92 0 min 0 min 0,000 mm 0,0 UV-I 0 W/m 10,5 C 15,7 C 4,8 km/h (1 Bft) 100,00 %
16.05.2024 02:54 15,7 C 71 % 0,0 l/m 0,2 km/h (0 Bft) O 98 0 min 0 min 0,000 mm 0,0 UV-I 0 W/m 10,5 C 15,7 C 3,2 km/h (1 Bft) 100,00 %
16.05.2024 02:52 15,7 C 71 % 0,0 l/m 0,0 km/h (0 Bft) O 100 0 min 0 min 0,000 mm 0,0 UV-I 0 W/m 10,5 C 15,7 C 0,0 km/h (0 Bft) 100,00 %
16.05.2024 02:50 15,7 C 71 % 0,0 l/m 0,2 km/h (0 Bft) O 96 0 min 0 min 0,000 mm 0,0 UV-I 0 W/m 10,5 C 15,7 C 3,2 km/h (1 Bft) 100,00 %
16.05.2024 02:48 15,7 C 71 % 0,0 l/m 0,1 km/h (0 Bft) O 98 0 min 0 min 0,000 mm 0,0 UV-I 0 W/m 10,5 C 15,7 C 1,6 km/h (1 Bft) 100,00 %
16.05.2024 02:46 15,7 C 71 % 0,0 l/m 0,0 km/h (0 Bft) O 101 0 min 0 min 0,000 mm 0,0 UV-I 0 W/m 10,5 C 15,7 C 1,6 km/h (1 Bft) 100,00 %
16.05.2024 02:44 15,7 C 71 % 0,0 l/m 0,2 km/h (0 Bft) O 101 0 min 0 min 0,000 mm 0,0 UV-I 0 W/m 10,5 C 15,6 C 4,8 km/h (1 Bft) 97,92 %
16.05.2024 02:42 15,7 C 71 % 0,0 l/m 0,1 km/h (0 Bft) O 91 0 min 0 min 0,000 mm 0,0 UV-I 0 W/m 10,5 C 15,6 C 1,6 km/h (1 Bft) 97,96 %
16.05.2024 02:40 15,7 C 71 % 0,0 l/m 0,1 km/h (0 Bft) O 90 0 min 0 min 0,000 mm 0,0 UV-I 0 W/m 10,5 C 15,6 C 1,6 km/h (1 Bft) 97,92 %
16.05.2024 02:38 15,6 C 71 % 0,0 l/m 0,0 km/h (0 Bft) O 91 0 min 0 min 0,000 mm 0,0 UV-I 0 W/m 10,4 C 15,6 C 0,0 km/h (0 Bft) 97,50 %
16.05.2024 02:36 15,6 C 71 % 0,0 l/m 0,0 km/h (0 Bft) O 92 0 min 0 min 0,000 mm 0,0 UV-I 0 W/m 10,4 C 15,6 C 1,6 km/h (1 Bft) 94,12 %
16.05.2024 02:34 15,6 C 71 % 0,0 l/m 0,0 km/h (0 Bft) O 90 0 min 0 min 0,000 mm 0,0 UV-I 0 W/m 10,4 C 15,6 C 1,6 km/h (1 Bft) 97,50 %
16.05.2024 02:32 15,6 C 71 % 0,0 l/m 0,0 km/h (0 Bft) O 89 0 min 0 min 0,000 mm 0,0 UV-I 0 W/m 10,4 C 15,6 C 0,0 km/h (0 Bft) 94,12 %
16.05.2024 02:30 15,6 C 71 % 0,0 l/m 0,0 km/h (0 Bft) O 90 0 min 0 min 0,000 mm 0,0 UV-I 0 W/m 10,4 C 15,6 C 0,0 km/h (0 Bft) 98,00 %
16.05.2024 02:28 15,6 C 72 % 0,0 l/m 0,8 km/h (0 Bft) O 89 0 min 0 min 0,000 mm 0,0 UV-I 0 W/m 10,6 C 15,6 C 6,4 km/h (2 Bft) 95,92 %
16.05.2024 02:26 15,6 C 72 % 0,0 l/m 0,2 km/h (0 Bft) O 101 0 min 0 min 0,000 mm 0,0 UV-I 0 W/m 10,6 C 15,6 C 3,2 km/h (1 Bft) 97,62 %
16.05.2024 02:24 15,6 C 71 % 0,0 l/m 0,3 km/h (0 Bft) O-SO 103 0 min 0 min 0,000 mm 0,0 UV-I 0 W/m 10,4 C 15,6 C 3,2 km/h (1 Bft) 95,83 %
16.05.2024 02:22 15,6 C 71 % 0,0 l/m 0,1 km/h (0 Bft) O 88 0 min 0 min 0,000 mm 0,0 UV-I 0 W/m 10,4 C 15,5 C 3,2 km/h (1 Bft) 97,96 %
16.05.2024 02:20 15,6 C 72 % 0,0 l/m 0,3 km/h (0 Bft) O 86 0 min 0 min 0,000 mm 0,0 UV-I 0 W/m 10,6 C 15,5 C 3,2 km/h (1 Bft) 97,96 %
16.05.2024 02:18 15,5 C 72 % 0,0 l/m 0,7 km/h (0 Bft) O 82 0 min 0 min 0,000 mm 0,0 UV-I 0 W/m 10,5 C 15,5 C 4,8 km/h (1 Bft) 97,30 %
16.05.2024 02:16 15,5 C 72 % 0,0 l/m 0,5 km/h (0 Bft) O 93 0 min 0 min 0,000 mm 0,0 UV-I 0 W/m 10,5 C 15,4 C 3,2 km/h (1 Bft) 97,92 %
16.05.2024 02:14 15,5 C 72 % 0,0 l/m 0,9 km/h (0 Bft) O 94 0 min 0 min 0,000 mm 0,0 UV-I 0 W/m 10,5 C 15,4 C 4,8 km/h (1 Bft) 100,00 %
16.05.2024 02:12 15,4 C 73 % 0,0 l/m 0,7 km/h (0 Bft) O 90 0 min 0 min 0,000 mm 0,0 UV-I 0 W/m 10,6 C 15,4 C 4,8 km/h (1 Bft) 97,92 %
16.05.2024 02:10 15,4 C 72 % 0,0 l/m 0,1 km/h (0 Bft) O 94 0 min 0 min 0,000 mm 0,0 UV-I 0 W/m 10,4 C 15,4 C 1,6 km/h (1 Bft) 100,00 %
16.05.2024 02:08 15,4 C 72 % 0,0 l/m 0,3 km/h (0 Bft) O 86 0 min 0 min 0,000 mm 0,0 UV-I 0 W/m 10,4 C 15,4 C 3,2 km/h (1 Bft) 100,00 %
16.05.2024 02:06 15,4 C 73 % 0,0 l/m 0,0 km/h (0 Bft) O 92 0 min 0 min 0,000 mm 0,0 UV-I 0 W/m 10,6 C 15,4 C 0,0 km/h (0 Bft) 97,96 %
16.05.2024 02:04 15,4 C 73 % 0,0 l/m 0,2 km/h (0 Bft) O 88 0 min 0 min 0,001 mm 0,0 UV-I 0 W/m 10,6 C 15,3 C 3,2 km/h (1 Bft) 97,30 %
16.05.2024 02:02 15,4 C 73 % 0,0 l/m 1,1 km/h (1 Bft) O 100 0 min 0 min 0,025 mm 0,0 UV-I 0 W/m 10,6 C 15,3 C 6,4 km/h (2 Bft) 98,00 %
16.05.2024 02:00 15,3 C 73 % 0,0 l/m 0,9 km/h (0 Bft) O 92 0 min 0 min 0,000 mm 0,0 UV-I 0 W/m 10,5 C 15,3 C 9,7 km/h (2 Bft) 97,96 %
16.05.2024 01:58 15,3 C 73 % 0,0 l/m 0,4 km/h (0 Bft) O 94 0 min 0 min 0,000 mm 0,0 UV-I 0 W/m 10,5 C 15,3 C 4,8 km/h (1 Bft) 97,96 %
16.05.2024 01:56 15,3 C 74 % 0,0 l/m 0,4 km/h (0 Bft) O 98 0 min 0 min 0,000 mm 0,0 UV-I 0 W/m 10,7 C 15,3 C 3,2 km/h (1 Bft) 100,00 %
16.05.2024 01:54 15,3 C 74 % 0,0 l/m 0,0 km/h (0 Bft) O 93 0 min 0 min 0,000 mm 0,0 UV-I 0 W/m 10,7 C 15,3 C 0,0 km/h (0 Bft) 100,00 %
16.05.2024 01:52 15,3 C 74 % 0,0 l/m 0,5 km/h (0 Bft) O 88 0 min 0 min 0,000 mm 0,0 UV-I 0 W/m 10,7 C 15,3 C 4,8 km/h (1 Bft) 100,00 %
16.05.2024 01:50 15,3 C 74 % 0,0 l/m 1,2 km/h (1 Bft) O-SO 106 0 min 0 min 0,000 mm 0,0 UV-I 0 W/m 10,7 C 15,3 C 6,4 km/h (2 Bft) 100,00 %
16.05.2024 01:48 15,3 C 74 % 0,0 l/m 0,1 km/h (0 Bft) O-SO 104 0 min 0 min 0,000 mm 0,0 UV-I 0 W/m 10,7 C 15,3 C 3,2 km/h (1 Bft) 100,00 %
16.05.2024 01:46 15,3 C 74 % 0,0 l/m 0,4 km/h (0 Bft) O-SO 103 0 min 0 min 0,000 mm 0,0 UV-I 0 W/m 10,7 C 15,3 C 4,8 km/h (1 Bft) 100,00 %
16.05.2024 01:44 15,3 C 74 % 0,0 l/m 1,1 km/h (1 Bft) O-SO 105 0 min 0 min 0,000 mm 0,0 UV-I 0 W/m 10,7 C 15,3 C 6,4 km/h (2 Bft) 100,00 %
16.05.2024 01:42 15,3 C 74 % 0,0 l/m 0,2 km/h (0 Bft) O-SO 112 0 min 0 min 0,000 mm 0,0 UV-I 0 W/m 10,7 C 15,3 C 3,2 km/h (1 Bft) 100,00 %
16.05.2024 01:40 15,3 C 74 % 0,0 l/m 0,7 km/h (0 Bft) O-SO 105 0 min 0 min 0,000 mm 0,0 UV-I 0 W/m 10,7 C 15,3 C 4,8 km/h (1 Bft) 100,00 %
16.05.2024 01:39 15,3 C 74 % 0,0 l/m 0,2 km/h (0 Bft) O 101 0 min 0 min 0,000 mm 0,0 UV-I 0 W/m 10,7 C 15,3 C 4,8 km/h (1 Bft) 100,00 %
16.05.2024 01:36 15,3 C 74 % 0,0 l/m 0,3 km/h (0 Bft) O-SO 111 0 min 0 min 0,000 mm 0,0 UV-I 0 W/m 10,7 C 15,3 C 3,2 km/h (1 Bft) 100,00 %
16.05.2024 01:34 15,4 C 75 % 0,0 l/m 0,8 km/h (0 Bft) O 100 0 min 0 min 0,000 mm 0,0 UV-I 0 W/m 11,0 C 15,3 C 4,8 km/h (1 Bft) 100,00 %
16.05.2024 01:32 15,4 C 75 % 0,0 l/m 0,2 km/h (0 Bft) O 94 0 min 0 min 0,000 mm 0,0 UV-I 0 W/m 11,0 C 15,4 C 3,2 km/h (1 Bft) 97,50 %
16.05.2024 01:30 15,4 C 75 % 0,0 l/m 0,1 km/h (0 Bft) O 79 0 min 0 min 0,000 mm 0,0 UV-I 0 W/m 11,0 C 15,4 C 1,6 km/h (1 Bft) 97,78 %
16.05.2024 01:28 15,4 C 75 % 0,0 l/m 0,0 km/h (0 Bft) O 79 0 min 0 min 0,000 mm 0,0 UV-I 0 W/m 11,0 C 15,4 C 0,0 km/h (0 Bft) 96,23 %
16.05.2024 01:26 15,4 C 75 % 0,0 l/m 0,0 km/h (0 Bft) O 79 0 min 0 min 0,000 mm 0,0 UV-I 0 W/m 11,0 C 15,4 C 1,6 km/h (1 Bft) 93,88 %
16.05.2024 01:24 15,4 C 75 % 0,0 l/m 0,0 km/h (0 Bft) O-NO 78 0 min 0 min 0,000 mm 0,0 UV-I 0 W/m 11,0 C 15,4 C 1,6 km/h (1 Bft) 97,92 %
16.05.2024 01:22 15,4 C 75 % 0,0 l/m 0,0 km/h (0 Bft) O-NO 78 0 min 0 min 0,000 mm 0,0 UV-I 0 W/m 11,0 C 15,4 C 1,6 km/h (1 Bft) 97,30 %
16.05.2024 01:20 15,4 C 75 % 0,0 l/m 0,1 km/h (0 Bft) O-NO 78 0 min 0 min 0,000 mm 0,0 UV-I 0 W/m 11,0 C 15,4 C 3,2 km/h (1 Bft) 97,92 %
16.05.2024 01:18 15,4 C 75 % 0,0 l/m 0,2 km/h (0 Bft) O 80 0 min 0 min 0,000 mm 0,0 UV-I 0 W/m 11,0 C 15,4 C 1,6 km/h (1 Bft) 97,96 %
16.05.2024 01:16 15,4 C 75 % 0,0 l/m 0,6 km/h (0 Bft) O-NO 74 0 min 0 min 0,000 mm 0,0 UV-I 0 W/m 11,0 C 15,4 C 3,2 km/h (1 Bft) 96,00 %
16.05.2024 01:14 15,4 C 75 % 0,0 l/m 0,9 km/h (0 Bft) O-NO 74 0 min 0 min 0,000 mm 0,0 UV-I 0 W/m 11,0 C 15,4 C 6,4 km/h (2 Bft) 93,88 %
16.05.2024 01:12 15,4 C 75 % 0,0 l/m 0,4 km/h (0 Bft) NO 44 0 min 0 min 0,000 mm 0,0 UV-I 0 W/m 11,0 C 15,4 C 3,2 km/h (1 Bft) 97,50 %
16.05.2024 01:10 15,5 C 75 % 0,0 l/m 1,9 km/h (1 Bft) O-NO 76 0 min 0 min 0,000 mm 0,0 UV-I 0 W/m 11,1 C 15,5 C 8,0 km/h (2 Bft) 98,15 %
16.05.2024 01:08 15,5 C 75 % 0,0 l/m 0,3 km/h (0 Bft) O 87 0 min 0 min 0,000 mm 0,0 UV-I 0 W/m 11,1 C 15,5 C 3,2 km/h (1 Bft) 95,83 %
16.05.2024 01:06 15,5 C 75 % 0,0 l/m 0,9 km/h (0 Bft) O-NO 76 0 min 0 min 0,000 mm 0,0 UV-I 0 W/m 11,1 C 15,5 C 4,8 km/h (1 Bft) 97,44 %
16.05.2024 01:04 15,6 C 75 % 0,0 l/m 0,6 km/h (0 Bft) O-NO 76 0 min 0 min 0,000 mm 0,0 UV-I 0 W/m 11,2 C 15,5 C 3,2 km/h (1 Bft) 100,00 %
16.05.2024 01:02 15,6 C 75 % 0,0 l/m 0,3 km/h (0 Bft) O-NO 73 0 min 0 min 0,000 mm 0,0 UV-I 0 W/m 11,2 C 15,6 C 3,2 km/h (1 Bft) 100,00 %
16.05.2024 01:00 15,6 C 75 % 0,0 l/m 0,2 km/h (0 Bft) O 82 0 min 0 min 0,025 mm 0,0 UV-I 0 W/m 11,2 C 15,6 C 1,6 km/h (1 Bft) 98,15 %
16.05.2024 00:58 15,6 C 75 % 0,0 l/m 0,3 km/h (0 Bft) O 83 0 min 0 min 0,000 mm 0,0 UV-I 0 W/m 11,2 C 15,6 C 3,2 km/h (1 Bft) 97,44 %
16.05.2024 00:56 15,6 C 75 % 0,0 l/m 0,9 km/h (0 Bft) O 82 0 min 0 min 0,000 mm 0,0 UV-I 0 W/m 11,2 C 15,6 C 4,8 km/h (1 Bft) 98,18 %
16.05.2024 00:54 15,6 C 75 % 0,0 l/m 0,2 km/h (0 Bft) O 88 0 min 0 min 0,000 mm 0,0 UV-I 0 W/m 11,2 C 15,6 C 3,2 km/h (1 Bft) 98,04 %
16.05.2024 00:52 15,7 C 75 % 0,0 l/m 0,0 km/h (0 Bft) O 81 0 min 0 min 0,000 mm 0,0 UV-I 0 W/m 11,3 C 15,7 C 1,6 km/h (1 Bft) 94,87 %
16.05.2024 00:50 15,7 C 75 % 0,0 l/m 0,1 km/h (0 Bft) O 81 0 min 0 min 0,000 mm 0,0 UV-I 0 W/m 11,3 C 15,7 C 1,6 km/h (1 Bft) 100,00 %
16.05.2024 00:48 15,7 C 75 % 0,0 l/m 1,0 km/h (0 Bft) O 81 0 min 0 min 0,000 mm 0,0 UV-I 0 W/m 11,3 C 15,7 C 4,8 km/h (1 Bft) 100,00 %
16.05.2024 00:46 15,7 C 75 % 0,0 l/m 0,3 km/h (0 Bft) O 90 0 min 0 min 0,000 mm 0,0 UV-I 0 W/m 11,3 C 15,7 C 4,8 km/h (1 Bft) 100,00 %
16.05.2024 00:44 15,8 C 75 % 0,0 l/m 0,9 km/h (0 Bft) O 83 0 min 0 min 0,000 mm 0,0 UV-I 0 W/m 11,4 C 15,7 C 4,8 km/h (1 Bft) 100,00 %
16.05.2024 00:42 15,8 C 75 % 0,0 l/m 1,3 km/h (1 Bft) O-NO 71 0 min 0 min 0,000 mm 0,0 UV-I 0 W/m 11,4 C 15,8 C 6,4 km/h (2 Bft) 100,00 %
16.05.2024 00:40 15,8 C 75 % 0,0 l/m 0,8 km/h (0 Bft) O 79 0 min 0 min 0,000 mm 0,0 UV-I 0 W/m 11,4 C 15,8 C 6,4 km/h (2 Bft) 100,00 %
16.05.2024 00:38 15,8 C 75 % 0,0 l/m 0,0 km/h (0 Bft) O-NO 78 0 min 0 min 0,000 mm 0,0 UV-I 0 W/m 11,4 C 15,8 C 1,6 km/h (1 Bft) 100,00 %
16.05.2024 00:36 15,8 C 75 % 0,0 l/m 0,0 km/h (0 Bft) O 90 0 min 0 min 0,000 mm 0,0 UV-I 0 W/m 11,4 C 15,8 C 1,6 km/h (1 Bft) 100,00 %
16.05.2024 00:34 15,9 C 74 % 0,0 l/m 0,0 km/h (0 Bft) O-NO 60 0 min 0 min 0,000 mm 0,0 UV-I 0 W/m 11,3 C 15,9 C 0,0 km/h (0 Bft) 100,00 %
16.05.2024 00:32 15,9 C 74 % 0,0 l/m 0,0 km/h (0 Bft) O-NO 60 0 min 0 min 0,000 mm 0,0 UV-I 0 W/m 11,3 C 15,9 C 1,6 km/h (1 Bft) 100,00 %
16.05.2024 00:30 15,9 C 74 % 0,0 l/m 0,4 km/h (0 Bft) O-NO 60 0 min 0 min 0,000 mm 0,0 UV-I 0 W/m 11,3 C 15,9 C 4,8 km/h (1 Bft) 100,00 %
16.05.2024 00:28 15,9 C 75 % 0,0 l/m 0,2 km/h (0 Bft) O-NO 72 0 min 0 min 0,000 mm 0,0 UV-I 0 W/m 11,5 C 15,9 C 3,2 km/h (1 Bft) 97,96 %
16.05.2024 00:26 15,9 C 75 % 0,0 l/m 0,1 km/h (0 Bft) O-NO 73 0 min 0 min 0,000 mm 0,0 UV-I 0 W/m 11,5 C 15,9 C 1,6 km/h (1 Bft) 97,92 %
16.05.2024 00:24 15,9 C 75 % 0,0 l/m 0,5 km/h (0 Bft) NO 50 0 min 0 min 0,000 mm 0,0 UV-I 0 W/m 11,5 C 15,9 C 4,8 km/h (1 Bft) 97,30 %
16.05.2024 00:22 16,0 C 75 % 0,0 l/m 0,8 km/h (0 Bft) O-NO 67 0 min 0 min 0,000 mm 0,0 UV-I 0 W/m 11,6 C 16,0 C 4,8 km/h (1 Bft) 97,96 %
16.05.2024 00:20 16,0 C 75 % 0,0 l/m 0,7 km/h (0 Bft) O-NO 65 0 min 0 min 0,000 mm 0,0 UV-I 0 W/m 11,6 C 16,0 C 6,4 km/h (2 Bft) 97,92 %
16.05.2024 00:18 16,0 C 75 % 0,0 l/m 3,4 km/h (1 Bft) O 92 0 min 0 min 0,000 mm 0,0 UV-I 0 W/m 11,6 C 16,0 C 11,3 km/h (2 Bft) 97,92 %
16.05.2024 00:16 16,0 C 75 % 0,0 l/m 0,3 km/h (0 Bft) O-NO 77 0 min 0 min 0,000 mm 0,0 UV-I 0 W/m 11,6 C 16,0 C 3,2 km/h (1 Bft) 100,00 %
16.05.2024 00:14 16,1 C 75 % 0,0 l/m 1,5 km/h (1 Bft) O 82 0 min 0 min 0,000 mm 0,0 UV-I 0 W/m 11,7 C 16,1 C 6,4 km/h (2 Bft) 94,59 %
16.05.2024 00:12 16,1 C 75 % 0,0 l/m 1,3 km/h (1 Bft) O 86 0 min 0 min 0,000 mm 0,0 UV-I 0 W/m 11,7 C 16,1 C 8,0 km/h (2 Bft) 97,96 %
16.05.2024 00:10 16,1 C 76 % 0,0 l/m 0,0 km/h (0 Bft) O-NO 65 0 min 0 min 0,000 mm 0,0 UV-I 0 W/m 11,9 C 16,1 C 0,0 km/h (0 Bft) 91,30 %
16.05.2024 00:09 16,2 C 76 % 0,0 l/m 0,4 km/h (0 Bft) O-NO 65 0 min 0 min 0,000 mm 0,0 UV-I 0 W/m 12,0 C 16,2 C 4,8 km/h (1 Bft) 98,65 %
16.05.2024 00:06 16,2 C 77 % 0,0 l/m 0,6 km/h (0 Bft) O-NO 66 0 min 0 min 0,000 mm 0,0 UV-I 0 W/m 12,2 C 16,2 C 3,2 km/h (1 Bft) 97,67 %
16.05.2024 00:04 16,2 C 77 % 0,0 l/m 1,4 km/h (1 Bft) O-NO 78 0 min 0 min 0,000 mm 0,0 UV-I 0 W/m 12,2 C 16,2 C 6,4 km/h (2 Bft) 96,08 %
16.05.2024 00:02 16,2 C 77 % 0,0 l/m 0,0 km/h (0 Bft) O-SO 115 0 min 0 min 0,000 mm 0,0 UV-I 0 W/m 12,2 C 16,2 C 0,0 km/h (0 Bft) 97,50 %
16.05.2024 00:00 16,3 C 78 % 0,0 l/m 0,0 km/h (0 Bft) O-SO 115 0 min 0 min 0,000 mm 0,0 UV-I 0 W/m 12,5 C 16,3 C 1,6 km/h (1 Bft) 97,73 %
15.05.2024 23:58 16,3 C 79 % 0,0 l/m 0,0 km/h (0 Bft) O-SO 115 0 min 0 min 0,000 mm 0,0 UV-I 0 W/m 12,6 C 16,3 C 0,0 km/h (0 Bft) 98,00 %
15.05.2024 23:56 16,3 C 79 % 0,0 l/m 0,0 km/h (0 Bft) O-SO 115 0 min 0 min 0,000 mm 0,0 UV-I 0 W/m 12,6 C 16,3 C 1,6 km/h (1 Bft) 97,44 %
15.05.2024 23:54 16,3 C 80 % 0,0 l/m 0,0 km/h (0 Bft) O-SO 115 0 min 0 min 0,000 mm 0,0 UV-I 0 W/m 12,8 C 16,3 C 0,0 km/h (0 Bft) 96,08 %
15.05.2024 23:52 16,4 C 80 % 0,0 l/m 0,3 km/h (0 Bft) O-SO 115 0 min 0 min 0,000 mm 0,0 UV-I 0 W/m 12,9 C 16,3 C 3,2 km/h (1 Bft) 95,00 %
15.05.2024 23:50 16,4 C 80 % 0,0 l/m 0,0 km/h (0 Bft) O-SO 117 0 min 0 min 0,000 mm 0,0 UV-I 0 W/m 12,9 C 16,4 C 1,6 km/h (1 Bft) 96,30 %
15.05.2024 23:48 16,4 C 80 % 0,0 l/m 0,0 km/h (0 Bft) O-SO 117 0 min 0 min 0,000 mm 0,0 UV-I 0 W/m 12,9 C 16,4 C 0,0 km/h (0 Bft) 97,92 %
15.05.2024 23:46 16,4 C 80 % 0,0 l/m 0,0 km/h (0 Bft) O-SO 117 0 min 0 min 0,000 mm 0,0 UV-I 0 W/m 12,9 C 16,4 C 0,0 km/h (0 Bft) 95,92 %
15.05.2024 23:44 16,4 C 80 % 0,0 l/m 0,0 km/h (0 Bft) O-SO 117 0 min 0 min 0,000 mm 0,0 UV-I 0 W/m 12,9 C 16,4 C 0,0 km/h (0 Bft) 97,30 %
15.05.2024 23:42 16,4 C 80 % 0,0 l/m 0,0 km/h (0 Bft) O-SO 117 0 min 0 min 0,000 mm 0,0 UV-I 0 W/m 12,9 C 16,3 C 0,0 km/h (0 Bft) 98,00 %
15.05.2024 23:40 16,4 C 80 % 0,0 l/m 0,0 km/h (0 Bft) O-SO 117 0 min 0 min 0,000 mm 0,0 UV-I 0 W/m 12,9 C 16,3 C 1,6 km/h (1 Bft) 100,00 %
15.05.2024 23:38 16,3 C 81 % 0,0 l/m 0,0 km/h (0 Bft) O-SO 117 0 min 0 min 0,000 mm 0,0 UV-I 0 W/m 13,0 C 16,3 C 0,0 km/h (0 Bft) 100,00 %
15.05.2024 23:36 16,3 C 81 % 0,0 l/m 0,0 km/h (0 Bft) O-SO 117 0 min 0 min 0,000 mm 0,0 UV-I 0 W/m 13,0 C 16,3 C 1,6 km/h (1 Bft) 100,00 %
15.05.2024 23:34 16,3 C 81 % 0,0 l/m 0,0 km/h (0 Bft) O-SO 117 0 min 0 min 0,000 mm 0,0 UV-I 0 W/m 13,0 C 16,3 C 0,0 km/h (0 Bft) 100,00 %
15.05.2024 23:32 16,3 C 80 % 0,0 l/m 0,0 km/h (0 Bft) O-SO 117 0 min 0 min 0,000 mm 0,0 UV-I 0 W/m 12,8 C 16,2 C 0,0 km/h (0 Bft) 100,00 %
15.05.2024 23:30 16,3 C 80 % 0,0 l/m 0,0 km/h (0 Bft) O-SO 117 0 min 0 min 0,000 mm 0,0 UV-I 0 W/m 12,8 C 16,2 C 0,0 km/h (0 Bft) 100,00 %
15.05.2024 23:28 16,2 C 79 % 0,0 l/m 0,3 km/h (0 Bft) O-SO 117 0 min 0 min 0,000 mm 0,0 UV-I 0 W/m 12,6 C 16,1 C 4,8 km/h (1 Bft) 100,00 %
15.05.2024 23:26 16,1 C 78 % 0,0 l/m 0,2 km/h (0 Bft) O-SO 117 0 min 0 min 0,000 mm 0,0 UV-I 0 W/m 12,3 C 16,1 C 3,2 km/h (1 Bft) 100,00 %
15.05.2024 23:24 16,1 C 78 % 0,0 l/m 0,1 km/h (0 Bft) O-SO 117 0 min 0 min 0,000 mm 0,0 UV-I 0 W/m 12,3 C 16,0 C 1,6 km/h (1 Bft) 100,00 %
15.05.2024 23:22 16,0 C 78 % 0,0 l/m 0,1 km/h (0 Bft) O-SO 117 0 min 0 min 0,000 mm 0,0 UV-I 0 W/m 12,2 C 15,9 C 1,6 km/h (1 Bft) 100,00 %
15.05.2024 23:20 15,9 C 78 % 0,0 l/m 0,2 km/h (0 Bft) O-SO 117 0 min 0 min 0,000 mm 0,0 UV-I 0 W/m 12,1 C 15,9 C 1,6 km/h (1 Bft) 100,00 %
15.05.2024 23:19 15,9 C 78 % 0,0 l/m 0,9 km/h (0 Bft) O-SO 117 0 min 0 min 0,000 mm 0,0 UV-I 0 W/m 12,1 C 15,8 C 4,8 km/h (1 Bft) 97,14 %
15.05.2024 23:16 15,8 C 78 % 0,0 l/m 1,7 km/h (1 Bft) SO 142 0 min 0 min 0,000 mm 0,0 UV-I 0 W/m 12,0 C 15,8 C 8,0 km/h (2 Bft) 97,92 %
15.05.2024 23:14 15,8 C 79 % 0,0 l/m 1,4 km/h (1 Bft) SO 142 0 min 0 min 0,000 mm 0,0 UV-I 0 W/m 12,2 C 15,7 C 6,4 km/h (2 Bft) 97,92 %
15.05.2024 23:12 15,7 C 80 % 0,0 l/m 4,2 km/h (1 Bft) SO 146 0 min 0 min 0,000 mm 0,0 UV-I 0 W/m 12,3 C 15,6 C 24,1 km/h (4 Bft) 99,14 %
15.05.2024 23:10 15,6 C 81 % 0,0 l/m 1,6 km/h (1 Bft) SO 134 0 min 0 min 0,000 mm 0,0 UV-I 0 W/m 12,3 C 15,6 C 24,1 km/h (4 Bft) 100,00 %
15.05.2024 23:08 15,6 C 81 % 0,0 l/m 9,7 km/h (2 Bft) S-SO 154 0 min 0 min 0,000 mm 0,0 UV-I 0 W/m 12,3 C 15,6 C 14,5 km/h (3 Bft) 100,00 %
15.05.2024 23:06 15,6 C 81 % 0,0 l/m 0,0 km/h (0 Bft) O-SO 115 0 min 0 min 0,000 mm 0,0 UV-I 0 W/m 12,3 C 15,6 C 1,6 km/h (1 Bft) 100,00 %
15.05.2024 23:05 15,6 C 81 % 0,0 l/m 0,0 km/h (0 Bft) O-SO 109 0 min 0 min 0,000 mm 0,0 UV-I 0 W/m 12,3 C 15,5 C 1,6 km/h (1 Bft) 100,00 %
15.05.2024 23:02 15,5 C 81 % 0,0 l/m 0,0 km/h (0 Bft) NO 37 0 min 0 min 0,025 mm 0,0 UV-I 0 W/m 12,3 C 15,5 C 0,0 km/h (0 Bft) 100,00 %
15.05.2024 23:00 15,5 C 81 % 0,0 l/m 0,0 km/h (0 Bft) NO 37 0 min 0 min 0,000 mm 0,0 UV-I 0 W/m 12,3 C 15,4 C 1,6 km/h (1 Bft) 97,96 %
_ Min-Zeit 07:04 03:06 - 23:00 - - - - - - - 03:06 07:04 23:02 00:10
Minimum _ 12,7 C 69 % - 0,0 km/h (0 Bft) - - - - - - - 10,0 C 12,7 C 0,0 km/h (0 Bft) 91,30 %
_ Max-Zeit 17:28 06:24 03:34 10:52 - - 11:05 06:09 18:02 11:18 15:54 17:28 17:30 23:10 23:02
Maximum _ 19,8 C 91 % 0,2 l/m 14,8 km/h
S-SO (3 Bft)
- - 3 min 3 min 0,279 mm 3,8 UV-I 954 W/m 16,6 C 19,8 C 24,1 km/h
S-SO (4 Bft)
100,00 %
Durchschnitt _ 16,1 C 82 % #3,4 l/m 1,5 km/h (1 Bft) NO - #3:51 h #36 min. #2,184 mm 1,5 UV-I 227 W/m 12,9 C 16,0 C 5,4 km/h (1 Bft) 98,20 %
Walter Karow